GFSSW_sfc_wetblb_087.txt.gz
Wetbulb
61.05 60.64 60.51 60.85 61.41 62.10 62.44 62.52 62.15 61.67 61.46 59.43 58.29 58.09 57.32 60.44 61.63 57.28 53.73 56.28 58.03 62.32 59.81 54.71 54.54 54.31 55.24 53.51 53.88 54.48 48.68 45.80 46.64 46.62 48.22 51.71 50.49 52.38 53.15 52.68 55.04 56.42 56.49 61.19 65.46
60.42 60.30 60.35 60.65 61.03 61.55 62.13 62.41 62.33 62.49 62.29 61.62 59.91 59.49 59.39 61.00 56.83 53.53 59.84 61.48 62.74 62.51 53.72 51.76 51.94 53.58 51.18 52.84 52.31 50.39 48.65 48.35 50.84 50.20 49.43 51.28 51.33 51.22 50.59 51.15 51.52 54.02 59.08 64.17 64.99
60.00 60.06 60.03 60.53 60.49 60.78 61.59 62.02 61.99 62.24 62.44 61.87 61.82 61.03 60.45 59.49 50.63 50.67 61.25 62.54 63.22 61.47 55.84 54.40 53.49 52.70 50.38 51.48 51.01 51.06 48.49 50.30 49.36 49.97 51.78 51.09 50.63 52.25 50.39 49.06 51.54 51.70 55.57 62.25 63.57
59.71 59.74 59.79 59.74 60.17 60.27 60.99 61.24 61.24 61.75 62.02 61.99 61.62 61.17 60.27 56.05 40.03 53.18 62.06 63.71 63.19 59.09 54.72 52.21 51.24 48.93 49.06 47.99 50.79 47.61 48.74 49.64 49.11 49.29 50.35 49.99 51.32 49.98 50.96 51.03 52.80 53.92 56.18 61.18 62.17
59.19 59.13 58.87 59.30 59.80 60.04 60.55 60.93 60.92 60.83 60.85 60.89 61.09 60.36 56.37 48.70 48.57 55.68 61.53 63.02 59.36 56.22 51.80 50.53 49.55 49.24 46.36 48.77 49.36 48.63 48.33 49.05 49.32 48.77 50.32 50.40 49.51 49.51 50.07 52.09 51.89 52.04 55.20 58.79 61.10
58.71 58.16 58.16 58.66 59.41 60.19 60.38 60.53 60.22 60.19 60.38 60.47 60.38 59.77 53.61 43.44 55.23 55.55 57.50 57.35 56.08 53.61 51.39 51.76 49.97 51.33 48.59 48.41 48.09 49.07 49.04 48.41 48.82 48.44 48.06 48.35 48.02 48.30 49.22 50.35 50.48 50.82 53.51 56.81 59.78
58.24 57.60 57.64 58.21 58.95 59.78 60.06 60.12 59.64 59.68 59.77 59.62 59.84 56.95 50.30 47.49 55.40 55.40 55.26 54.32 54.95 53.69 51.37 52.65 52.42 50.29 50.05 47.35 48.35 49.17 44.85 46.64 47.28 47.53 46.81 47.91 45.09 46.04 48.51 48.54 48.81 49.67 52.44 55.08 58.24
57.78 57.19 57.50 57.81 58.54 59.20 59.52 59.48 59.46 59.26 59.38 59.83 60.17 55.21 46.27 54.82 56.22 52.87 53.65 53.05 54.23 54.43 53.60 52.94 52.62 50.81 49.51 48.92 47.05 45.45 46.40 42.48 45.64 46.80 46.84 46.07 43.95 47.10 47.95 47.38 47.85 49.59 50.93 52.80 55.89
57.16 56.85 57.33 57.52 57.74 58.45 58.92 58.78 58.47 58.52 58.57 59.58 55.03 51.83 44.59 54.90 50.16 52.86 53.38 51.02 51.76 52.26 52.94 51.98 52.26 49.07 47.77 45.21 43.04 43.87 40.75 41.85 41.20 46.19 45.99 45.06 44.38 45.34 48.16 47.66 47.58 48.63 49.69 50.34 51.47
56.80 56.79 57.14 57.25 57.48 57.90 58.03 57.70 58.24 57.93 57.32 56.24 52.53 46.69 47.96 47.27 51.44 52.00 53.51 52.91 49.91 50.40 49.16 49.19 48.59 45.33 45.89 43.74 38.52 40.00 40.58 41.32 41.72 43.45 44.36 44.02 43.99 46.03 47.52 47.49 48.54 49.40 50.16 50.31 50.22
56.68 56.93 57.00 56.99 57.30 57.78 56.98 55.47 49.71 47.93 50.26 44.93 45.24 45.12 46.50 50.91 52.73 50.40 51.92 50.32 50.57 48.42 43.64 47.09 43.42 40.79 42.72 44.58 44.83 44.04 41.60 40.20 42.76 43.55 43.62 43.35 43.92 45.37 47.09 47.51 48.08 49.07 48.89 49.28 49.04
56.68 56.82 56.83 56.83 57.16 57.43 55.95 49.04 48.63 49.92 42.84 48.69 47.32 47.42 49.81 50.69 45.52 48.35 51.71 46.92 46.08 42.23 45.67 42.95 40.19 44.93 46.11 43.52 42.33 42.66 40.90 40.59 41.25 42.66 42.91 43.33 42.74 45.50 45.85 46.27 46.33 46.74 47.55 47.56 48.38
56.39 56.36 56.35 56.44 56.80 55.62 53.78 50.93 54.51 52.55 42.52 44.32 46.11 46.55 47.63 49.20 45.71 45.78 49.02 47.96 44.37 42.44 42.54 40.73 42.62 44.63 42.81 41.52 41.02 41.33 40.18 40.29 40.23 40.67 41.93 41.24 41.04 43.11 43.03 45.08 46.20 46.90 47.22 47.89 48.48
56.17 55.95 55.86 56.19 52.83 53.33 51.18 54.27 56.12 54.03 37.24 39.09 42.80 45.22 47.61 48.06 44.04 48.96 49.51 47.19 44.81 41.63 42.69 42.26 41.34 41.59 41.92 41.11 42.37 38.23 42.38 42.21 40.23 39.70 36.50 40.72 35.98 41.28 42.08 43.34 45.23 46.61 47.76 48.04 48.61
55.75 55.70 55.78 55.36 52.03 49.87 52.10 56.42 56.69 50.47 26.36 40.79 42.57 48.51 47.12 43.89 44.61 44.96 49.16 46.56 42.16 42.18 42.33 39.29 39.19 39.72 40.00 41.32 42.97 40.25 43.29 42.33 41.90 40.68 38.92 38.37 36.57 40.50 41.11 40.94 43.05 45.71 46.58 47.72 48.63
55.31 55.44 55.41 55.08 54.82 53.75 56.47 56.24 52.84 36.83 26.26 37.76 42.15 40.79 41.25 42.83 43.27 44.75 45.56 47.27 46.36 42.22 42.83 40.96 42.39 43.00 42.25 41.69 42.73 42.79 41.63 41.17 41.60 40.04 33.00 38.73 37.24 38.93 38.67 41.92 43.57 45.12 46.44 46.89 47.59
50.87 54.84 54.84 55.72 50.63 56.35 56.63 51.93 37.49 31.41 40.25 36.46 37.08 40.29 40.43 38.91 40.64 42.34 40.93 40.30 38.71 35.47 36.09 38.99 39.48 41.79 42.80 39.19 41.77 42.31 39.16 32.80 31.64 31.48 31.04 34.63 34.39 39.25 40.72 44.55 45.42 44.49 45.61 46.88 48.30
49.22 53.63 53.63 53.75 56.43 55.89 53.59 43.23 30.21 36.19 36.84 41.22 39.90 39.62 36.81 39.36 39.69 40.23 39.72 37.95 41.82 40.88 37.76 34.65 31.72 39.14 42.57 41.79 38.82 39.59 39.77 34.35 27.14 28.43 32.25 31.71 31.62 38.20 42.70 45.73 47.02 46.78 46.70 47.26 47.32
48.26 49.28 51.36 49.15 52.62 55.50 46.81 34.09 34.68 37.83 40.42 39.14 39.21 35.53 36.33 38.33 38.60 38.76 39.22 39.12 41.31 41.99 37.04 35.53 34.85 40.64 41.34 41.88 42.87 39.27 35.97 40.41 32.30 27.55 32.00 34.64 37.72 39.92 40.82 43.05 44.53 44.74 45.50 46.28 46.98
44.41 46.97 45.18 47.70 50.31 52.60 42.92 35.64 38.78 42.19 43.09 41.32 34.91 37.64 34.56 36.00 36.47 37.23 37.67 41.88 41.03 42.53 42.19 39.78 32.85 37.82 38.72 41.74 41.05 40.17 41.79 33.59 36.13 28.16 28.38 33.42 35.07 37.07 36.60 39.89 42.52 42.92 44.98 45.99 46.65
42.88 41.47 43.41 46.88 50.05 46.09 36.70 37.48 40.45 43.16 44.64 40.62 38.36 36.49 37.86 36.10 37.38 36.53 37.82 41.15 43.72 41.12 41.95 41.03 39.17 33.80 37.95 37.06 37.56 36.84 36.31 37.21 38.11 36.45 32.32 30.04 33.92 41.10 40.74 42.44 42.78 44.06 46.03 45.73 45.88
39.66 33.74 43.29 45.22 40.67 41.37 37.56 40.52 42.52 41.84 44.39 43.31 43.31 40.31 38.28 38.11 35.52 36.59 37.70 40.42 44.28 42.55 37.68 41.34 38.23 32.03 34.63 38.27 39.23 40.46 38.93 38.41 34.10 30.45 33.24 32.09 35.79 41.68 44.07 44.41 45.75 45.12 45.99 46.39 46.37
35.19 33.64 42.99 43.93 34.26 35.97 40.49 40.73 42.26 41.43 41.50 41.51 41.01 42.18 41.25 38.17 34.52 37.45 38.47 40.79 40.78 40.64 39.82 40.41 37.12 30.31 30.91 35.73 37.13 36.20 38.23 39.56 39.63 37.30 32.43 31.86 35.17 40.59 42.74 44.25 45.66 45.06 45.36 45.44 45.32
36.93 32.15 35.20 34.92 34.18 37.77 37.20 38.00 38.51 44.15 42.68 43.18 41.94 42.21 39.96 37.64 39.94 36.84 37.76 40.34 41.71 40.79 41.52 42.43 37.68 35.40 31.52 34.75 38.52 34.46 36.80 37.61 38.04 32.93 33.86 34.28 37.07 37.56 41.65 42.92 44.33 44.18 45.10 45.01 44.61
36.67 31.92 33.76 32.17 32.79 33.56 36.48 38.24 37.60 37.69 43.09 43.95 40.38 40.91 40.01 35.86 37.02 36.23 39.08 38.83 40.48 41.48 41.12 40.62 34.42 36.75 38.16 37.14 38.39 37.66 36.60 36.42 34.89 36.95 33.97 37.05 36.50 40.63 41.44 43.35 44.32 45.42 44.99 43.98 43.34
33.84 31.73 33.76 32.01 34.25 33.95 33.51 33.07 37.30 39.53 40.53 39.56 39.54 41.71 42.02 38.60 39.25 36.97 38.47 38.82 37.91 39.78 39.16 39.59 34.85 37.01 33.38 35.84 35.83 34.03 37.00 36.19 36.03 37.21 37.62 38.38 38.41 43.87 44.58 45.46 44.64 44.25 43.98 43.05 42.59
38.69 38.83 35.64 31.35 33.00 32.18 33.55 33.99 33.87 37.96 42.29 42.63 42.30 41.57 39.97 41.23 44.29 45.48 44.64 44.13 42.76 39.17 38.06 37.51 34.52 33.56 31.60 33.97 34.70 31.17 34.20 36.24 36.78 38.84 39.22 35.47 40.12 42.96 42.87 43.13 43.62 43.38 43.44 42.85 42.42

GFSSW_sfc_wetblb_093.txt.gz
Wetbulb
60.96 60.78 61.44 61.50 61.79 61.92 63.07 63.32 63.05 62.86 62.87 62.38 61.39 60.76 60.52 59.33 59.37 56.81 53.44 57.55 57.79 62.31 60.18 53.55 52.12 51.51 51.68 49.48 50.36 47.15 40.71 38.56 40.65 40.71 41.91 46.04 44.10 46.10 47.26 48.98 50.04 53.44 53.88 58.47 61.90
60.41 60.55 60.43 61.26 61.05 61.33 62.46 62.84 62.23 61.94 61.91 61.63 60.95 60.44 60.24 60.64 56.20 54.40 60.60 61.86 61.84 62.90 53.41 50.76 49.04 49.92 46.52 48.30 47.45 43.82 39.71 41.64 44.25 44.09 43.68 45.55 45.59 45.59 46.24 46.52 48.26 55.86 59.29 60.96 60.97
59.99 60.14 60.18 60.63 61.26 61.21 62.06 61.74 61.74 61.52 61.34 60.92 60.20 59.65 59.71 59.52 53.40 54.10 62.92 63.46 62.83 62.71 55.77 53.49 51.52 48.92 45.90 46.32 44.43 43.46 41.74 44.25 44.34 46.45 47.52 45.78 44.36 45.84 45.52 42.98 48.61 55.49 57.57 58.90 58.54
59.58 59.75 59.74 60.23 60.39 61.50 61.45 61.29 61.78 61.14 60.65 60.25 60.07 60.00 59.31 56.01 45.44 56.88 63.06 63.78 63.50 62.13 56.08 51.67 49.39 45.71 44.53 42.94 46.10 41.46 44.62 45.56 47.05 46.43 46.96 45.61 46.14 44.47 44.48 44.42 49.91 57.94 59.25 58.82 57.83
59.08 59.16 59.00 59.55 60.04 60.78 60.91 61.35 61.44 60.93 60.59 60.13 59.63 58.80 55.34 48.14 49.19 55.97 62.48 63.70 61.36 59.62 53.69 50.26 46.80 46.05 42.73 43.83 45.35 42.87 43.48 46.07 46.07 45.41 45.95 46.78 44.03 43.77 43.90 45.23 50.99 57.78 58.92 57.82 58.00
58.61 58.64 58.40 59.02 59.60 60.11 60.62 61.10 61.14 61.29 61.17 59.90 59.95 59.08 51.30 43.89 54.70 57.84 60.79 61.07 58.79 57.37 53.53 50.90 47.64 48.14 44.92 44.10 43.65 44.62 45.38 44.70 45.28 43.85 44.23 43.97 41.75 44.24 43.21 44.96 48.65 55.20 55.85 56.81 57.64
58.35 58.28 58.25 58.62 59.08 59.37 60.06 60.29 60.81 60.81 60.99 61.35 60.64 54.90 47.70 47.79 53.97 56.07 58.56 59.92 59.59 57.54 50.44 51.49 50.74 46.80 45.92 43.41 45.50 44.61 41.11 41.07 42.64 43.48 43.06 43.59 40.76 40.90 43.96 44.96 45.34 47.51 50.70 54.87 56.38
58.10 57.94 57.94 58.11 58.58 58.89 59.29 59.63 60.13 60.38 60.52 61.00 60.00 51.33 43.86 54.06 54.43 53.81 54.57 54.85 59.72 55.63 53.00 52.00 50.76 47.36 45.18 44.16 42.82 41.70 39.81 35.39 40.45 42.99 42.32 41.38 37.32 42.00 42.74 42.88 42.75 43.44 44.41 49.45 53.81
57.63 57.44 57.61 57.67 58.00 58.42 58.74 59.11 59.22 60.04 60.61 59.96 52.94 46.90 42.02 54.16 49.79 52.38 52.42 51.33 51.82 51.34 51.32 51.77 48.60 44.50 42.76 37.80 35.41 35.83 31.85 35.07 37.21 41.96 40.84 39.61 37.34 41.34 42.25 41.55 40.52 41.10 42.72 46.34 49.48
57.42 57.15 57.27 57.40 57.86 58.13 58.32 58.56 58.73 58.58 57.79 55.46 53.13 42.34 45.36 45.35 50.38 50.66 51.39 52.14 48.76 48.34 47.08 45.55 43.95 39.95 37.61 34.04 30.90 31.44 32.14 35.30 34.50 39.79 39.34 36.73 37.05 40.20 42.16 40.72 39.81 39.95 41.22 44.81 47.59
57.27 57.02 57.21 57.36 57.95 58.21 56.90 53.89 48.29 47.29 49.06 43.60 44.35 42.35 44.23 48.33 51.10 48.67 50.90 49.40 47.94 45.58 39.67 41.97 36.57 35.61 36.68 37.37 38.41 36.77 36.02 35.99 36.11 39.49 39.05 37.61 37.88 39.59 41.51 40.64 38.88 38.74 40.72 42.27 42.80
57.11 57.00 57.14 57.58 57.94 57.48 53.92 46.20 45.82 47.38 41.81 47.26 46.73 45.19 47.50 48.13 43.67 46.31 49.95 44.73 44.12 38.65 41.43 38.81 34.89 39.47 41.74 40.33 38.99 36.49 34.97 32.79 35.59 38.60 37.29 37.04 38.38 39.00 40.61 40.72 41.01 41.54 40.58 41.09 41.09
56.79 56.66 56.81 57.39 57.41 54.63 49.76 47.47 52.03 49.54 39.93 42.45 45.40 43.80 44.59 46.96 42.93 43.32 46.95 44.51 41.39 38.62 38.79 36.21 38.90 42.44 41.17 38.68 37.65 35.52 34.48 33.63 34.52 36.01 34.95 34.07 32.68 37.03 39.01 40.26 40.96 41.07 41.38 41.41 41.73
56.61 56.45 56.52 56.97 53.22 51.74 48.08 52.72 50.94 47.63 31.69 36.77 39.73 43.07 45.77 45.42 41.41 46.94 47.52 44.78 40.74 37.97 39.12 37.93 41.82 40.59 38.35 38.08 38.30 34.25 38.74 37.54 35.57 33.36 28.67 32.08 25.88 32.35 35.59 37.11 39.18 39.90 39.83 40.34 41.84
56.42 56.27 56.51 56.19 51.86 48.95 49.80 52.63 51.63 45.91 19.10 37.55 39.35 47.02 45.87 41.43 42.13 42.50 46.14 43.10 39.18 38.83 38.23 35.46 37.68 37.45 35.76 37.77 39.10 36.53 39.50 37.47 35.63 33.45 29.59 28.74 26.86 29.88 34.46 33.89 37.15 38.77 39.80 40.68 41.73
56.04 56.00 56.07 53.13 52.33 52.38 53.01 52.95 47.99 32.93 20.49 34.13 38.50 38.56 38.44 39.95 40.41 42.23 42.27 42.96 43.16 39.74 39.18 37.45 39.53 39.74 39.50 38.98 39.74 40.24 38.30 36.82 34.88 31.98 25.01 29.03 28.35 27.27 31.14 36.60 35.56 38.62 39.80 41.15 41.36
53.32 55.61 54.42 53.14 48.06 53.22 53.29 48.48 31.02 21.59 35.62 32.46 32.89 37.37 36.78 35.80 37.38 38.12 37.97 36.03 34.55 32.20 32.37 35.29 36.30 38.12 39.94 37.16 38.38 37.83 32.60 24.70 24.37 22.91 22.98 26.85 25.74 30.48 34.39 37.26 38.89 39.19 39.53 40.31 40.86
51.50 55.23 53.57 52.96 53.20 53.32 50.02 38.81 18.51 28.88 32.13 37.10 36.16 36.82 32.98 37.03 35.16 36.72 35.03 34.18 36.71 36.22 32.50 29.29 27.58 35.42 38.77 37.35 34.48 33.25 33.14 24.77 20.67 20.25 23.36 26.19 25.64 32.07 35.55 38.26 40.48 41.22 40.21 40.40 40.22
49.80 52.95 50.70 50.30 53.25 53.20 43.08 29.53 27.06 31.80 36.83 34.94 35.44 32.33 31.87 35.98 35.68 34.55 34.40 35.50 36.33 36.37 32.05 30.86 30.67 37.10 37.74 38.69 38.84 33.26 30.42 34.58 26.57 17.23 21.26 24.40 27.70 33.85 36.75 37.68 38.50 38.82 39.76 39.33 40.33
44.21 48.78 46.13 47.92 53.38 49.12 37.67 30.90 33.08 38.31 39.28 37.29 30.32 32.87 28.25 32.47 31.83 32.25 33.07 37.34 37.08 38.58 38.52 35.29 29.00 35.25 36.25 38.30 37.26 34.87 37.13 29.43 26.81 17.20 17.22 22.54 23.82 28.07 31.71 35.94 37.07 38.05 38.65 39.32 39.99
41.51 42.43 43.32 47.29 50.86 43.32 31.80 31.87 36.12 41.21 41.03 36.76 33.88 32.87 32.24 31.62 32.52 32.29 33.24 36.19 40.11 38.52 39.28 37.07 33.97 31.18 34.79 33.37 33.40 32.58 30.73 31.38 31.98 27.31 21.61 18.51 24.65 32.76 35.30 37.85 37.56 39.07 40.31 40.01 39.97
36.80 32.92 42.84 46.66 39.24 39.49 34.30 35.80 40.56 40.21 42.01 39.83 38.60 36.51 34.00 34.90 33.50 33.67 33.52 36.20 41.55 39.71 35.36 37.67 33.40 27.50 30.28 34.61 35.50 33.67 33.99 33.53 27.83 25.26 26.07 25.75 27.26 36.58 35.39 39.25 40.26 39.93 40.94 41.04 40.96
32.01 32.79 42.25 44.22 32.61 34.22 37.86 37.39 38.94 38.91 39.04 39.35 38.14 38.88 37.69 35.32 32.07 35.01 35.99 38.98 39.14 38.96 36.59 38.24 31.99 25.09 28.19 32.07 33.60 32.67 33.91 34.69 33.07 28.02 23.66 21.99 25.94 36.09 34.13 37.72 40.31 39.64 40.56 41.01 40.71
32.46 31.49 35.90 38.44 35.86 35.64 35.18 34.89 35.72 41.13 39.66 41.05 39.35 39.44 36.85 34.69 36.54 34.52 35.69 39.18 39.75 39.30 41.68 40.89 34.19 30.38 26.75 29.50 33.22 30.06 32.19 33.34 33.21 26.07 25.74 26.01 27.99 32.26 34.23 36.70 37.96 39.50 40.95 40.54 40.58
34.39 30.85 31.29 31.77 33.44 35.34 36.62 36.39 34.96 35.85 39.98 41.16 38.46 38.01 36.35 32.32 34.18 33.76 37.42 37.45 39.16 40.56 38.62 37.93 29.64 32.57 32.68 33.91 33.86 33.39 32.86 32.54 31.83 35.16 30.52 33.42 30.43 33.73 35.09 37.32 39.71 40.72 40.57 39.95 39.97
32.26 31.81 33.36 31.98 32.84 35.72 36.00 32.91 34.93 36.69 38.76 37.64 37.39 38.94 38.10 34.60 35.12 33.33 36.21 35.77 35.29 37.91 37.01 37.65 27.53 31.28 28.48 33.64 33.08 30.21 32.50 33.67 35.20 34.37 32.61 31.21 31.44 36.72 37.83 38.50 39.07 40.54 40.74 40.37 40.36
37.26 37.99 34.87 32.84 32.14 34.55 33.63 34.86 34.88 38.21 39.33 41.11 40.78 38.90 37.91 39.43 40.50 40.11 40.41 39.97 38.92 36.34 35.28 35.68 32.54 29.07 24.06 29.40 29.53 26.34 31.41 32.34 33.79 34.88 35.90 31.76 37.02 35.81 36.34 38.86 40.19 40.69 41.57 41.60 41.51

GFSSW_sfc_wetblb_096.txt.gz
Wetbulb
61.29 61.49 61.34 61.40 61.27 62.23 62.92 63.05 63.38 63.32 62.95 62.49 61.63 60.40 60.23 60.02 59.50 57.02 52.81 56.58 57.98 62.65 59.02 55.02 54.54 53.51 50.78 48.56 49.50 48.00 40.18 38.67 40.13 39.80 42.06 43.98 43.58 44.29 46.72 48.47 51.09 54.07 55.35 58.44 60.67
60.90 60.88 60.80 61.25 61.07 61.77 61.79 62.73 62.83 63.10 62.61 62.07 61.79 61.04 60.31 60.03 55.07 52.86 60.59 62.39 63.08 61.90 52.40 53.68 48.84 50.46 47.14 46.87 47.20 44.12 39.30 41.27 44.53 42.56 43.80 44.46 44.63 44.99 46.26 46.13 51.22 53.78 57.30 60.76 59.70
60.23 60.24 60.49 60.84 60.75 61.29 61.35 61.86 62.31 62.63 62.68 61.87 61.57 61.11 60.68 58.48 51.25 51.29 62.30 63.70 62.95 62.08 54.74 53.05 51.29 48.99 45.77 46.27 45.14 44.13 41.28 44.09 44.33 44.15 45.65 44.99 43.69 43.58 45.43 42.04 52.21 53.90 57.03 58.98 58.56
59.82 59.65 59.89 60.02 60.56 60.99 61.37 61.58 62.06 61.86 61.96 61.39 61.19 60.85 60.37 56.67 44.33 56.24 62.60 63.58 63.58 61.32 54.51 52.49 49.94 45.72 44.45 43.53 45.43 41.00 44.79 44.42 46.38 45.77 45.92 44.55 45.31 42.94 42.96 43.51 52.62 57.76 58.78 58.66 57.86
59.39 59.04 59.30 59.61 60.11 60.66 61.13 61.36 61.33 61.22 60.85 60.74 60.35 60.09 56.03 50.53 50.20 55.55 62.48 62.89 60.92 59.07 52.08 50.02 49.82 45.91 42.52 43.86 44.52 42.29 42.06 44.37 44.52 46.11 45.39 45.76 43.36 43.27 42.42 42.49 56.86 58.05 58.31 57.67 58.17
58.86 58.61 58.77 59.15 59.82 60.36 60.96 61.48 61.26 60.74 60.59 60.31 60.08 59.18 51.03 45.85 55.80 56.32 60.59 60.12 57.95 55.97 54.15 51.14 49.03 49.30 45.13 44.29 43.26 44.01 43.36 42.64 43.47 43.41 43.93 43.55 42.24 43.11 42.68 47.43 55.35 57.28 57.01 57.04 56.89
58.73 58.18 58.39 58.72 59.33 59.76 60.36 61.11 60.40 60.27 60.23 60.16 59.62 54.21 46.97 47.94 52.95 58.73 60.10 58.53 57.61 56.38 52.99 53.28 50.52 48.87 47.14 43.74 47.19 42.59 39.15 39.55 40.60 42.31 41.70 43.41 40.48 40.08 42.47 50.24 54.15 54.91 55.46 56.44 57.05
58.42 57.78 57.85 58.27 58.81 59.47 59.75 60.23 60.03 60.04 59.68 59.81 59.34 49.96 42.50 52.44 54.27 57.76 58.88 58.95 58.61 58.29 55.46 52.66 50.94 49.14 45.34 46.36 43.48 40.39 37.54 34.26 38.93 41.51 40.69 40.46 37.19 40.79 42.14 45.99 49.43 51.48 51.93 54.95 56.37
57.75 57.22 57.67 58.03 58.17 58.63 59.25 59.51 59.60 60.20 60.40 60.06 51.58 46.22 41.12 53.26 49.32 52.57 57.92 56.79 56.30 55.57 55.61 53.73 49.17 44.46 43.50 39.66 36.33 34.70 31.33 32.48 36.00 41.24 39.26 38.86 36.53 40.53 40.87 42.24 42.25 43.45 46.10 49.97 53.47
57.42 57.23 57.54 57.92 58.00 58.04 58.83 59.36 59.64 59.51 58.23 55.40 52.85 41.64 44.42 43.86 48.15 50.39 53.74 55.98 50.75 51.43 47.44 47.25 43.49 39.39 38.15 35.91 32.29 30.86 31.57 32.98 32.99 38.49 37.91 36.41 36.54 38.47 40.72 40.01 39.95 40.07 40.21 43.60 48.29
57.23 57.18 57.42 57.76 57.89 58.61 57.89 55.74 50.19 49.02 49.19 42.92 44.11 41.96 43.06 47.18 50.12 48.12 52.55 50.08 49.72 47.32 39.71 41.58 36.77 35.19 38.24 36.83 37.63 37.27 35.71 34.76 34.25 37.95 37.31 36.82 36.95 38.78 40.06 38.82 37.76 38.05 38.45 41.78 45.90
57.32 57.18 57.49 57.75 58.04 58.14 55.67 48.56 46.81 48.94 41.26 46.26 46.45 45.02 45.54 46.12 42.17 46.39 50.93 44.05 44.09 41.63 41.05 37.35 34.28 39.43 40.59 40.23 38.86 36.86 35.70 33.64 34.88 37.19 36.41 35.38 36.90 37.37 38.83 39.30 39.32 38.87 38.09 41.37 40.04
56.93 56.80 56.96 57.43 57.47 55.18 51.32 47.23 51.63 49.59 38.71 42.06 45.68 43.02 44.01 45.38 40.97 42.39 47.33 43.80 41.78 41.24 39.37 35.01 37.43 41.29 40.18 37.98 36.86 34.26 33.66 32.43 34.65 34.30 33.93 32.88 33.47 35.76 38.56 38.68 39.41 40.09 39.66 39.87 40.28
56.82 56.67 56.64 56.94 53.31 52.50 48.07 50.08 52.59 46.15 31.58 35.54 39.34 42.31 44.20 44.03 39.18 45.50 47.01 44.70 41.32 37.41 40.55 37.78 41.27 39.48 38.34 37.83 37.61 31.99 37.02 36.46 34.85 32.15 28.77 32.69 27.27 30.38 35.15 37.44 38.70 39.44 38.82 39.92 40.47
56.59 56.45 56.52 56.03 52.09 48.48 49.64 50.93 51.45 43.93 20.28 36.15 38.04 45.76 44.04 40.41 40.73 41.28 45.18 42.02 38.50 38.12 38.82 36.28 38.05 37.16 36.59 38.23 38.86 35.50 38.59 36.62 34.21 31.55 30.45 28.36 27.24 29.82 31.66 32.80 37.05 38.10 38.54 40.45 40.96
55.61 56.05 56.09 53.55 52.78 51.83 52.04 51.12 46.54 31.09 18.78 32.80 37.79 37.99 37.44 38.44 38.73 40.76 40.82 41.08 43.83 39.67 39.36 39.16 40.34 40.41 39.72 38.74 39.16 39.34 37.57 35.19 33.50 31.19 24.99 29.08 28.80 28.00 29.97 35.07 38.68 36.63 38.91 39.34 40.77
52.80 55.79 54.69 54.05 49.03 52.12 52.25 46.74 29.50 23.09 34.29 30.84 32.24 36.45 35.77 34.40 35.65 36.67 37.07 34.57 32.96 30.71 31.77 35.08 35.61 37.36 40.99 36.92 37.92 37.90 34.64 25.91 24.87 24.80 23.66 26.44 25.26 31.49 32.87 35.83 37.15 39.60 37.99 38.71 40.37
49.54 55.63 53.91 52.68 53.87 52.32 48.99 35.86 18.84 28.06 30.36 35.10 35.02 36.20 32.85 36.00 34.13 34.98 35.20 33.43 35.28 34.85 31.70 29.35 27.27 34.96 38.69 37.94 34.29 33.65 35.00 25.05 19.90 19.21 22.00 26.01 25.00 31.48 34.80 37.04 38.01 39.23 39.59 39.25 39.30
48.95 53.70 51.08 50.92 53.17 51.81 43.20 29.25 26.63 30.82 35.31 33.26 34.39 31.71 29.98 34.54 34.04 32.72 33.46 34.65 36.10 35.01 31.51 30.94 30.04 35.95 36.95 38.38 38.51 34.43 31.06 33.49 25.95 16.96 22.43 23.92 27.06 34.19 35.66 35.52 36.75 37.44 38.79 38.55 38.88
43.38 49.79 47.85 52.32 53.08 49.29 38.38 30.55 31.69 36.49 37.13 36.50 28.60 31.54 26.91 32.18 30.65 30.36 31.74 36.65 35.61 37.46 37.74 34.45 28.76 34.66 35.81 37.68 37.29 35.70 36.83 29.75 26.62 19.14 16.59 21.98 23.01 27.75 31.58 35.87 36.06 36.72 38.04 38.35 39.31
41.14 44.41 43.67 51.11 51.84 43.85 33.15 32.19 35.09 38.44 39.24 34.65 31.21 30.39 30.47 31.49 30.41 30.11 31.40 33.45 38.95 36.09 37.14 35.80 33.56 30.74 34.97 33.40 32.94 32.86 31.23 30.41 30.60 27.27 22.14 17.62 24.02 31.08 35.07 38.09 36.75 37.84 38.90 39.10 39.39
36.67 33.18 43.15 50.01 40.09 39.84 34.51 34.62 39.58 38.61 39.22 37.58 36.20 33.88 32.30 33.69 31.20 31.36 30.71 33.79 41.19 37.68 34.28 36.57 32.94 27.36 30.54 34.57 35.52 33.50 33.56 33.38 28.48 24.74 23.98 24.04 25.75 33.94 33.89 36.00 38.50 37.88 39.14 39.36 40.07
32.66 32.47 42.98 47.68 33.17 34.85 37.86 36.96 38.46 38.68 37.95 37.49 35.20 36.34 35.76 34.32 31.10 33.24 34.17 38.30 39.35 38.48 36.29 37.29 31.36 25.07 28.11 31.76 33.57 32.49 33.54 33.89 31.35 28.86 24.81 24.47 26.86 34.43 33.10 35.05 38.70 38.67 39.14 39.70 38.92
32.47 31.54 35.64 42.22 37.32 37.29 35.29 34.58 34.30 40.64 39.40 39.87 37.80 37.74 35.09 33.58 35.10 32.21 33.43 38.26 38.91 39.99 41.33 40.83 33.23 30.32 26.60 29.99 32.56 29.49 31.77 32.80 33.58 26.20 25.25 25.47 28.77 31.83 33.25 35.04 37.24 39.34 39.63 39.39 39.48
32.81 30.02 30.95 31.83 34.07 36.96 37.13 36.03 33.61 34.75 38.88 40.07 36.73 36.20 35.17 31.66 32.91 32.73 35.14 36.03 38.53 40.66 38.29 37.84 29.30 31.54 31.97 33.32 34.31 32.54 32.74 33.37 32.34 34.95 30.53 33.42 29.41 33.39 34.71 35.88 38.32 39.86 39.58 39.04 39.04
31.89 31.49 32.23 31.90 34.04 36.40 36.61 33.96 33.68 35.85 37.21 35.66 35.69 37.16 37.24 33.54 34.76 32.20 35.05 33.82 34.86 36.98 36.39 35.87 26.11 30.50 28.64 33.24 32.39 30.09 32.53 33.00 34.19 33.65 31.24 29.52 29.25 35.61 35.34 37.40 37.73 39.19 39.82 39.34 39.60
37.37 37.32 33.49 32.05 34.57 34.83 33.72 34.23 34.96 37.85 38.02 39.74 39.29 38.13 37.15 38.41 39.44 39.48 39.85 39.32 38.41 36.93 37.24 35.07 29.88 25.56 20.62 28.86 29.56 26.82 31.09 32.16 33.67 35.79 35.44 31.26 36.92 35.15 34.77 36.91 38.50 38.93 40.43 40.53 40.96

GFSSW_sfc_wetblb_102.txt.gz
Wetbulb
58.60 59.30 59.79 62.15 62.11 62.58 62.89 62.99 63.40 63.15 63.12 62.53 61.72 60.63 60.82 60.37 59.47 54.25 50.11 55.20 56.24 60.97 61.35 55.80 56.01 54.04 51.99 48.63 48.59 47.35 38.95 35.32 37.95 39.21 39.16 41.81 41.66 41.66 45.80 49.87 49.70 52.15 52.58 55.46 61.12
57.98 58.90 58.74 61.60 61.73 61.88 62.13 62.47 62.64 62.85 62.67 62.30 61.32 60.73 60.68 59.38 52.11 50.21 57.59 61.95 62.24 61.41 56.34 54.53 52.48 53.25 48.82 47.78 47.00 44.22 38.92 40.50 42.97 42.67 39.43 42.34 42.28 44.10 46.15 47.82 48.16 50.06 55.59 60.39 61.37
58.05 58.87 59.21 61.19 61.42 61.43 61.49 61.79 61.91 62.45 62.58 62.04 60.89 60.54 59.74 55.66 48.12 47.72 60.36 63.14 61.97 59.57 56.45 53.43 52.68 51.67 49.83 48.81 45.79 44.07 40.17 43.02 43.96 44.37 43.73 42.88 41.47 43.22 45.43 43.85 49.01 51.24 54.66 59.36 59.62
58.29 58.73 58.31 56.82 61.31 61.26 61.17 61.36 61.57 61.78 62.30 61.82 60.74 60.10 58.86 53.17 40.78 51.53 61.64 63.63 62.19 55.11 52.80 50.70 49.69 47.60 47.53 47.90 47.93 42.64 44.23 43.35 44.44 44.47 44.01 42.44 42.70 42.73 44.92 44.88 46.85 54.25 57.43 59.04 58.72
56.90 58.20 58.61 57.51 61.01 60.89 60.88 61.32 61.46 61.27 61.95 61.60 60.77 59.68 55.01 48.39 47.17 55.89 61.68 62.86 58.03 54.42 52.31 49.80 49.00 46.66 44.57 45.12 46.42 43.48 43.64 43.49 44.00 44.60 43.27 43.83 41.91 41.33 42.62 44.49 51.77 56.52 57.49 58.47 59.15
57.04 57.70 58.13 57.60 60.25 60.67 60.57 60.95 61.39 60.95 61.72 61.71 60.72 58.99 53.27 46.18 55.49 55.61 57.31 58.71 55.59 53.20 52.39 52.41 48.82 49.73 45.63 43.93 46.71 44.74 44.49 43.67 43.26 42.73 43.06 42.75 39.38 40.33 40.92 51.38 53.67 55.73 55.58 57.48 58.64
56.95 57.28 57.28 58.39 59.76 59.96 60.08 60.39 61.05 60.60 61.55 61.80 60.51 56.39 51.70 49.93 53.56 56.31 57.72 56.42 55.60 54.44 51.61 51.36 52.94 52.65 49.27 45.80 48.14 44.56 41.24 41.16 41.88 42.79 41.62 41.86 38.16 39.59 40.57 52.38 52.66 53.40 54.75 54.80 56.95
56.23 57.28 56.85 58.56 59.36 59.45 59.67 59.98 60.37 60.69 61.37 61.40 60.36 52.82 47.95 53.07 53.23 56.97 56.65 56.16 56.17 55.89 52.53 54.21 54.35 49.36 48.06 49.39 47.96 40.90 39.33 33.91 38.10 40.42 40.67 41.04 36.39 40.41 45.50 51.33 50.83 51.39 51.84 53.41 54.59
54.60 56.96 56.53 58.39 58.56 58.57 59.28 59.63 59.99 60.97 61.52 60.84 52.93 50.28 44.80 54.82 52.14 56.01 56.38 53.37 55.21 54.49 53.14 54.18 51.47 48.37 46.82 45.19 43.33 43.33 35.90 32.75 36.61 39.20 38.53 38.39 37.08 39.34 43.93 50.24 49.79 50.21 50.98 52.43 52.91
54.92 56.82 56.43 57.79 58.10 58.07 58.95 59.61 59.90 60.46 59.41 55.74 52.95 45.77 44.34 43.53 51.37 55.81 56.17 55.53 52.95 52.52 50.03 47.70 44.71 41.76 42.48 43.59 37.11 38.62 36.55 34.84 34.90 37.69 36.61 35.52 37.21 37.01 38.25 48.51 49.38 50.00 50.67 51.39 52.52
54.67 56.90 57.32 57.63 57.74 58.20 58.18 57.44 52.43 50.99 51.40 46.21 45.75 42.41 43.58 46.69 51.66 53.09 55.86 53.96 52.57 50.33 44.55 45.28 39.03 37.16 40.51 44.42 41.89 43.93 37.47 35.19 35.83 38.62 37.95 36.90 37.69 39.98 37.89 36.00 43.52 46.53 47.65 49.58 51.92
54.19 55.06 57.46 57.45 57.54 58.21 57.77 51.75 50.56 51.86 42.17 47.07 48.11 43.63 45.11 49.96 48.02 51.00 55.33 49.12 47.98 43.53 44.29 39.86 36.64 41.86 43.87 42.76 43.21 37.78 39.81 37.80 36.09 37.71 36.76 36.18 37.31 36.59 36.25 37.43 39.02 43.74 42.91 46.53 45.50
53.51 53.46 56.94 56.96 57.20 57.06 53.79 51.65 54.47 51.41 40.65 42.37 46.53 43.13 43.16 47.22 45.06 47.69 51.42 47.45 46.42 41.81 42.26 39.80 40.78 43.09 40.70 39.77 36.90 37.80 35.15 34.65 35.47 35.00 33.92 33.47 34.90 34.25 36.16 35.69 37.16 37.76 38.81 40.03 44.23
52.69 53.83 56.35 56.51 54.35 54.83 51.79 53.70 54.04 49.77 35.64 36.98 41.69 42.80 42.88 43.94 41.30 47.41 48.41 45.68 42.49 42.68 40.83 38.93 43.09 41.45 39.08 37.60 38.72 33.87 37.98 37.04 34.54 34.48 30.77 32.43 27.09 32.44 33.83 36.04 36.06 37.74 36.31 37.26 37.98
52.09 52.73 54.48 56.58 53.51 51.51 52.75 54.50 51.27 48.84 26.02 38.13 40.07 45.91 43.10 41.69 41.83 43.27 45.73 44.36 40.40 41.51 40.09 37.42 36.70 37.44 36.22 37.95 40.81 37.64 38.13 36.51 35.49 32.87 30.67 29.10 26.83 32.37 29.86 32.68 34.23 36.45 37.42 38.89 39.00
51.68 52.43 51.97 55.00 54.07 54.34 54.77 52.49 48.33 34.44 24.74 34.34 38.56 37.14 37.77 37.35 38.21 41.36 40.88 44.09 44.46 41.72 41.24 38.19 39.60 38.88 37.94 38.82 41.22 39.02 36.86 35.18 33.79 30.57 25.03 31.29 27.87 28.05 31.68 32.65 35.57 37.97 38.28 39.85 38.21
50.87 52.09 50.83 55.09 50.31 53.70 51.73 47.45 32.21 28.59 34.29 30.18 32.51 35.78 35.79 32.96 34.74 39.45 36.25 35.58 34.55 34.57 34.10 36.88 37.26 37.58 37.42 36.36 37.54 38.76 34.08 26.44 25.72 22.42 24.74 26.34 25.37 34.06 33.23 34.44 36.87 40.19 40.70 40.30 37.46
49.97 51.27 51.49 54.41 53.44 52.43 49.50 39.69 27.61 29.75 30.92 33.25 33.95 36.01 31.46 34.34 32.17 35.02 33.52 32.02 34.02 33.62 33.24 31.92 29.97 36.49 38.08 37.30 32.35 35.09 34.81 25.59 19.82 20.43 25.08 25.24 24.95 31.15 35.68 35.78 35.86 36.61 37.10 37.05 37.45
49.37 49.06 52.11 52.15 52.92 51.38 42.81 32.43 31.07 30.24 32.14 31.78 33.34 30.84 28.59 32.70 32.23 33.40 33.48 33.31 34.14 34.29 30.50 30.97 31.88 36.15 35.93 38.77 39.15 33.95 33.54 33.77 25.77 18.19 21.05 24.43 27.64 32.81 33.93 35.05 35.93 36.82 35.60 36.44 37.34
45.09 45.72 49.67 52.18 52.29 48.00 39.61 35.12 28.99 33.99 35.44 35.84 28.12 30.25 26.09 30.89 28.89 30.18 32.50 35.72 33.59 35.67 35.00 31.90 26.60 32.49 36.03 39.22 37.73 35.90 37.80 29.70 29.24 17.71 17.41 21.62 22.43 28.98 30.30 35.57 36.75 37.02 37.39 37.62 37.13
43.39 38.22 49.21 51.98 50.72 42.91 34.40 35.32 32.24 36.20 38.04 32.99 29.26 28.17 29.45 30.50 29.53 30.71 31.85 32.72 36.60 35.29 33.88 32.41 30.55 28.54 33.87 32.48 32.57 32.77 32.17 32.12 32.31 28.03 21.95 19.22 25.58 30.57 34.90 36.74 38.03 38.40 39.30 38.48 37.55
37.84 32.18 45.53 51.12 39.80 38.45 36.04 34.87 37.83 34.67 35.52 34.21 33.53 31.00 31.43 32.52 28.38 31.50 30.45 34.56 40.39 38.20 33.55 33.96 30.19 25.23 28.38 32.37 36.83 36.86 34.96 35.29 29.30 25.37 22.95 24.53 27.79 32.21 33.53 34.11 35.40 35.76 37.97 38.14 38.85
31.96 32.85 44.13 47.93 33.95 33.47 37.98 35.64 37.27 33.80 33.78 33.15 32.08 33.27 33.43 32.34 28.66 30.76 31.98 37.92 39.70 37.85 35.02 35.21 29.38 22.02 26.17 30.10 31.15 32.07 32.39 33.44 34.88 29.95 27.20 25.32 28.78 33.47 33.34 35.03 36.36 36.20 37.12 37.76 38.42
32.45 31.15 35.57 43.41 40.18 36.79 34.86 33.93 32.27 36.25 35.09 35.19 33.39 34.26 33.21 32.10 32.00 30.07 31.12 35.21 38.67 40.06 40.88 40.30 32.06 28.29 24.56 26.99 30.18 27.39 32.47 33.29 32.86 28.31 29.11 29.71 31.58 33.75 35.52 36.62 36.23 36.85 37.85 37.75 38.13
32.43 29.72 30.83 32.67 35.38 37.98 37.48 34.37 32.62 32.48 36.08 36.67 32.17 33.40 32.32 28.42 29.51 28.71 31.74 34.05 35.29 39.86 38.33 36.53 30.20 28.98 28.95 29.37 32.88 31.26 32.00 33.41 32.13 33.51 29.39 32.70 30.72 32.84 35.49 37.09 36.82 37.49 37.43 37.63 37.51
32.01 30.62 31.94 31.80 37.06 38.06 37.08 33.34 32.63 34.08 35.45 33.63 31.67 32.69 32.74 29.84 31.86 28.99 32.41 31.99 32.76 34.25 34.58 32.99 24.18 28.75 25.32 30.51 29.34 28.35 31.98 33.51 34.81 34.99 34.12 34.76 34.57 39.09 35.90 35.65 36.94 37.93 37.74 37.55 38.16
35.80 35.21 32.45 32.23 35.99 36.10 34.84 34.57 33.43 36.18 36.27 37.09 35.15 33.68 32.13 33.50 37.33 39.18 39.04 38.17 36.96 35.48 34.72 32.25 27.47 23.57 20.88 26.05 27.77 22.68 29.97 30.97 32.35 34.64 35.06 31.35 37.11 35.69 35.76 35.39 36.95 37.04 38.23 38.74 39.44

GFSSW_sfc_wetblb_105.txt.gz
Wetbulb
59.27 57.68 57.91 58.81 57.92 61.84 63.22 62.97 63.43 63.80 63.29 62.98 62.41 61.36 61.47 60.55 59.24 54.40 49.80 55.38 56.51 61.68 61.41 56.81 56.65 54.06 52.13 49.42 49.77 48.05 40.87 39.31 41.42 40.32 41.97 44.09 44.45 45.80 49.31 52.52 52.71 54.69 54.66 57.38 62.02
58.58 58.30 57.44 58.51 58.40 58.04 62.58 62.49 62.93 63.45 63.29 62.74 62.13 60.91 60.98 59.63 52.11 49.99 57.00 61.70 62.30 62.83 56.22 54.47 52.60 53.69 49.13 48.61 47.55 45.50 40.96 42.61 45.02 44.79 43.09 43.93 44.50 45.25 49.07 50.31 51.84 53.78 57.55 60.81 61.60
58.47 58.10 57.36 57.87 58.13 57.17 61.83 62.00 62.31 62.98 63.05 62.67 61.74 60.60 60.09 55.10 47.14 47.46 60.06 62.65 62.98 61.83 58.23 57.34 54.12 53.70 49.79 49.47 46.89 44.39 42.38 44.01 44.50 45.34 44.89 44.13 43.13 46.25 47.69 47.15 50.14 51.89 55.65 59.68 60.01
57.48 58.06 57.77 57.80 58.73 58.65 58.77 61.45 61.88 62.54 62.74 62.40 61.20 60.26 58.80 51.99 41.16 51.30 60.90 63.54 62.48 55.05 53.90 52.79 51.44 49.78 48.42 46.22 48.23 43.52 44.70 44.24 45.94 44.99 45.58 43.95 44.17 44.43 47.09 48.03 49.08 54.16 58.45 58.81 59.99
57.22 57.68 57.65 57.60 58.45 58.64 57.59 61.33 61.49 62.27 62.13 61.93 60.83 59.38 54.19 47.47 46.40 55.54 61.32 62.96 57.69 52.13 51.66 50.73 49.86 48.54 47.23 47.25 47.03 44.85 44.78 44.82 45.08 44.08 44.89 44.50 43.28 44.24 45.14 46.45 51.51 56.61 58.48 58.29 59.56
57.00 56.93 57.31 57.68 58.38 58.74 57.19 61.22 61.03 61.74 61.75 61.61 60.54 58.61 52.67 44.70 54.50 57.41 58.77 56.00 55.23 51.69 51.72 52.09 49.88 49.56 46.38 45.14 47.11 46.32 45.52 45.10 45.26 43.51 44.09 43.48 41.84 43.15 45.21 52.74 53.44 56.11 57.22 58.23 58.58
56.25 56.54 56.96 57.45 58.40 57.97 56.52 60.79 60.84 61.34 61.55 61.48 60.27 56.62 51.95 50.02 54.75 56.69 58.02 55.45 54.75 52.57 51.78 52.42 53.17 51.63 48.10 44.69 47.98 43.33 42.26 43.44 42.49 43.14 42.78 43.77 40.99 41.59 44.71 53.11 52.91 53.81 55.60 57.48 58.44
55.69 55.56 56.53 57.02 58.12 58.15 57.29 60.22 60.38 60.72 61.02 61.26 60.08 55.85 49.33 53.44 54.93 56.08 56.24 55.02 55.31 54.38 53.36 54.36 54.05 49.71 49.34 50.07 47.77 42.74 40.94 36.86 41.63 41.37 41.93 41.27 39.08 43.08 46.28 52.23 51.84 52.75 53.42 55.77 57.16
54.95 55.35 54.88 56.88 57.57 57.32 57.94 59.75 59.64 60.49 61.24 60.80 56.04 52.48 44.95 55.38 51.38 55.88 54.95 52.67 54.38 53.10 54.43 54.07 52.49 47.65 47.63 45.00 42.66 42.21 36.22 35.77 38.35 40.85 39.78 39.57 39.04 42.25 46.40 50.25 50.09 51.32 52.76 54.21 55.30
54.29 55.28 53.89 56.83 57.10 56.88 58.95 59.41 59.37 59.85 59.56 58.19 54.78 47.79 45.63 47.42 53.27 55.59 54.82 55.34 52.25 50.77 49.34 48.37 46.11 43.83 44.21 44.12 37.65 37.52 38.13 35.54 34.96 39.02 37.97 37.21 38.17 40.68 41.11 49.01 49.21 50.42 51.43 52.84 53.96
53.21 54.21 54.04 56.64 57.06 58.08 58.27 56.43 51.85 50.31 53.42 48.03 46.69 44.08 44.02 50.15 55.02 53.14 54.63 53.33 52.63 49.66 42.36 44.14 41.96 41.35 42.96 45.17 44.42 43.21 40.66 39.79 37.06 39.43 37.51 36.74 37.81 42.20 39.90 43.10 46.83 48.89 50.63 51.44 52.62
52.24 53.58 53.89 53.63 56.89 58.28 56.93 51.16 51.05 51.73 46.09 49.22 48.85 44.15 47.57 52.57 48.76 52.01 54.51 48.11 47.31 42.27 42.38 39.67 38.35 43.63 45.59 45.83 41.47 43.11 40.67 38.47 39.00 37.88 37.65 36.47 36.91 40.69 38.41 38.67 41.67 46.87 48.66 50.99 51.40
51.71 53.06 52.85 53.79 56.66 56.81 53.54 51.77 55.49 51.72 42.41 44.55 45.49 44.58 47.20 49.87 47.20 48.92 51.75 49.20 44.65 42.51 41.60 38.06 40.11 43.21 43.87 42.35 42.38 39.15 41.21 39.79 39.55 35.63 36.80 34.98 35.59 37.12 37.89 37.47 37.97 40.14 46.05 48.16 51.15
51.16 52.54 52.30 51.73 53.32 54.40 51.55 55.20 54.71 52.19 37.02 37.90 41.13 43.88 43.91 47.14 43.74 49.80 51.70 48.21 45.24 42.21 42.85 41.92 43.56 40.51 40.22 39.88 42.61 37.57 40.78 37.42 35.75 35.26 33.60 34.64 28.15 34.96 36.81 37.36 36.48 38.69 37.81 42.56 45.72
50.64 51.83 52.22 51.97 53.16 51.16 53.21 54.79 53.26 50.15 27.20 37.97 40.24 47.51 43.99 43.74 44.02 44.74 47.50 46.04 42.40 40.55 41.30 38.66 38.41 38.65 37.28 38.75 40.90 38.63 41.04 38.09 35.86 33.28 29.14 28.90 29.59 33.59 33.83 33.98 36.73 37.83 38.57 39.72 41.07
50.41 51.50 51.72 50.62 53.90 54.46 54.84 53.73 50.28 36.25 25.39 33.27 38.99 38.17 38.91 39.77 39.68 41.70 43.11 45.22 45.70 40.66 40.84 38.28 40.31 41.24 39.31 39.47 42.64 39.60 38.39 36.91 35.74 32.98 27.41 30.06 30.80 29.06 36.80 35.90 37.15 38.71 40.09 41.11 40.77
49.78 50.85 50.18 50.65 49.27 55.20 52.87 48.82 34.85 30.31 34.30 30.86 33.55 37.78 37.03 35.85 38.46 41.02 37.75 38.15 37.99 35.10 34.78 37.11 36.94 39.23 37.59 34.87 38.94 39.16 35.62 28.38 26.84 25.11 24.31 26.40 28.17 35.29 35.83 36.33 39.18 40.89 41.35 41.73 41.32
48.98 50.29 50.35 50.29 53.88 53.38 49.79 40.82 30.11 30.66 31.83 35.38 36.04 36.83 33.31 36.05 36.58 37.96 36.97 35.53 34.34 35.19 35.53 32.92 31.01 36.74 38.04 35.97 33.79 36.27 35.84 28.86 22.27 22.10 23.16 25.12 26.13 31.62 36.64 39.90 37.37 37.89 38.88 38.52 38.87
48.94 48.33 47.77 48.83 52.45 53.06 44.24 32.27 30.65 32.47 32.09 33.68 35.18 32.52 30.92 32.77 36.06 36.17 34.48 35.99 35.43 35.35 32.66 33.55 33.48 37.12 37.54 39.39 38.44 33.30 31.61 34.22 27.89 16.39 20.35 24.79 28.40 34.40 34.52 35.72 35.87 37.62 37.44 38.30 38.87
44.84 45.01 44.90 49.30 54.02 49.63 39.25 32.57 29.84 33.75 35.31 36.61 30.87 32.20 29.32 29.66 30.25 32.88 32.88 34.52 34.10 36.12 35.53 33.57 27.62 34.14 36.90 38.99 38.04 34.91 38.78 30.70 30.67 21.12 16.63 22.64 23.64 29.39 31.45 35.85 37.43 37.00 38.18 40.29 38.91
43.23 36.10 42.85 47.55 52.55 44.55 32.98 32.87 32.56 36.00 39.21 34.16 29.16 28.05 30.66 29.42 29.66 30.86 32.12 32.36 35.12 35.05 33.69 33.34 30.52 27.68 33.06 33.45 32.76 33.84 32.82 34.17 33.12 27.43 21.49 17.56 25.29 30.66 34.95 36.58 36.75 38.18 38.03 38.85 39.25
37.71 31.75 44.84 51.37 41.55 40.88 36.88 33.83 37.86 36.34 34.64 33.20 32.68 30.65 32.68 32.72 28.92 29.96 30.69 33.16 38.07 38.12 31.52 33.57 29.87 25.23 29.69 31.47 36.91 35.22 33.42 34.30 30.25 26.09 25.90 24.18 25.29 34.09 33.71 34.55 35.53 36.69 36.71 38.59 39.26
32.36 32.42 42.37 42.96 31.94 35.86 38.63 35.55 36.06 34.19 32.92 32.65 31.24 32.63 35.01 32.99 29.30 30.75 31.91 36.79 38.52 38.13 35.62 34.11 28.55 21.09 27.79 30.61 31.10 32.89 33.07 35.45 33.90 31.51 28.29 26.46 30.37 33.72 32.83 33.85 36.23 37.22 38.08 38.65 38.83
33.40 30.26 32.93 33.82 39.59 38.69 35.67 33.70 32.65 36.89 34.55 33.54 32.18 35.27 32.90 31.69 30.79 29.33 30.53 33.46 37.29 38.91 41.22 39.37 30.88 27.99 24.96 27.54 31.04 29.22 32.24 34.39 34.56 29.91 28.71 29.82 33.50 33.09 35.71 36.54 35.71 37.28 38.50 38.94 38.74
33.26 30.51 30.66 30.62 34.06 37.48 37.97 35.46 32.25 30.99 34.48 34.37 30.87 34.29 31.84 28.44 27.72 27.94 30.35 31.76 34.81 39.49 36.79 35.51 26.07 27.50 28.13 29.29 31.12 31.20 31.72 31.47 32.04 33.72 30.08 33.25 32.92 36.61 38.72 39.52 40.85 37.39 38.33 38.08 38.13
31.46 31.13 31.82 31.75 36.10 37.24 37.01 34.29 32.68 33.18 33.82 31.47 31.43 33.94 31.73 29.80 31.51 28.27 31.51 30.45 31.85 33.95 34.07 32.73 24.05 27.95 24.47 28.95 29.90 28.53 32.42 33.69 33.39 33.97 33.73 33.66 31.86 36.22 35.87 36.30 36.02 38.60 37.57 38.38 38.75
35.90 34.94 32.82 32.27 35.75 35.95 34.45 34.37 33.63 35.90 35.91 34.89 34.27 32.36 30.76 32.38 35.48 36.87 37.87 37.14 36.58 36.24 34.94 31.90 27.45 22.87 16.11 25.40 26.46 21.42 29.31 31.51 33.38 35.38 34.50 30.13 35.82 36.52 35.37 36.69 39.28 40.22 37.39 38.97 39.76

GFSSW_sfc_wetblb_108.txt.gz
Wetbulb
59.54 60.23 60.15 59.76 59.61 59.81 58.68 62.47 62.81 63.59 63.17 63.58 63.61 62.58 61.86 60.81 59.97 57.25 53.96 57.90 58.69 61.61 61.50 58.53 58.37 55.68 54.17 51.50 53.22 52.24 47.80 45.94 46.48 45.75 47.39 51.52 50.81 51.11 54.61 55.91 57.04 58.60 57.85 61.45 63.81
58.95 59.39 59.87 59.56 58.99 59.28 58.92 56.90 62.28 62.83 63.48 63.07 63.13 62.06 61.22 60.01 56.47 54.48 59.86 62.07 62.13 62.16 57.39 56.90 53.66 54.78 51.33 50.20 50.64 52.60 48.67 48.19 48.63 48.54 47.72 48.96 50.83 51.08 53.13 54.45 55.15 57.09 59.73 63.09 63.27
58.13 59.05 59.62 59.18 59.07 59.07 58.01 57.99 58.15 62.22 62.88 62.87 62.43 61.41 60.18 58.59 53.20 53.87 61.53 62.88 63.31 62.46 58.11 58.37 56.88 55.01 50.71 51.09 49.74 50.75 49.31 49.73 47.54 49.07 48.64 47.82 48.45 52.20 51.94 51.77 54.35 55.35 58.36 59.98 61.46
57.34 57.76 58.89 58.90 58.79 58.76 57.98 57.47 56.23 61.62 62.47 62.57 61.81 60.75 58.67 57.70 45.91 55.42 61.57 63.00 63.77 60.84 58.38 55.01 53.34 51.42 49.93 48.15 50.13 47.92 50.07 50.59 48.30 47.90 48.15 47.69 48.42 49.53 52.34 53.00 54.14 58.00 60.73 59.77 60.11
56.81 57.09 58.09 58.41 58.47 58.74 58.83 58.32 56.97 56.08 62.02 62.24 61.41 59.79 55.44 51.36 53.06 58.73 60.14 62.45 59.65 57.62 56.07 53.73 50.83 51.14 48.66 50.96 49.18 48.66 47.67 48.52 47.34 47.88 48.06 47.74 47.82 48.82 50.61 52.95 54.44 59.28 60.66 59.83 60.21
56.38 56.86 57.16 57.84 58.28 58.63 58.43 58.97 57.16 55.59 61.72 62.03 61.06 58.90 53.71 47.96 57.31 59.73 59.10 59.37 56.99 55.82 55.86 55.48 52.36 52.50 51.01 50.69 49.01 50.22 49.49 48.01 48.18 48.57 48.21 46.70 47.40 47.40 50.99 54.54 55.43 58.68 59.54 59.99 60.51
56.27 56.54 56.65 57.40 57.95 58.16 58.62 58.76 57.61 56.88 61.37 61.90 60.64 55.85 51.82 51.40 58.64 60.53 59.08 56.84 57.23 56.44 54.67 55.84 54.65 52.08 49.25 48.75 49.92 48.06 47.58 49.48 47.11 45.88 46.68 47.43 45.66 45.61 50.60 54.40 54.94 57.40 58.96 59.45 61.01
55.72 56.31 56.58 56.81 57.22 57.58 58.14 58.52 57.86 56.21 61.25 61.51 60.14 55.88 50.22 55.73 59.96 58.22 58.03 55.95 57.56 57.40 56.91 57.18 56.09 51.07 50.41 50.68 47.64 45.87 47.26 43.27 50.11 45.47 44.54 48.41 44.23 49.09 50.31 53.65 53.67 56.28 58.48 58.45 59.34
55.23 55.71 56.05 55.82 56.54 57.17 57.83 58.11 56.76 56.56 61.23 61.02 55.90 53.97 47.57 56.19 54.18 57.26 57.33 53.46 55.20 56.25 56.70 56.36 54.60 49.46 49.50 45.89 44.31 44.84 41.11 43.65 46.73 46.35 45.90 46.13 45.51 46.92 48.30 52.33 53.11 55.55 57.09 58.37 59.28
54.30 55.18 55.27 54.91 55.36 56.37 57.63 58.26 57.12 56.91 60.16 58.49 56.68 49.21 48.15 48.36 54.17 55.76 57.46 55.52 52.80 53.33 51.78 51.36 48.79 45.92 47.44 45.01 38.88 39.21 41.75 43.25 44.86 44.84 43.37 44.05 43.83 48.09 46.33 49.49 51.87 54.37 56.37 57.26 58.69
53.23 53.50 54.60 55.06 53.45 57.01 56.77 54.87 48.71 51.09 54.44 49.45 49.16 50.12 48.04 53.38 56.62 53.85 55.58 53.43 52.88 51.38 45.89 47.36 44.61 42.66 45.06 46.74 48.32 45.17 45.04 44.67 44.79 42.83 42.73 44.45 44.78 46.76 48.54 46.15 49.56 52.32 54.74 56.32 57.49
51.80 52.31 53.14 54.50 54.54 55.70 55.83 49.60 48.50 54.62 47.54 50.71 51.97 49.39 52.26 53.83 48.64 51.65 55.29 48.86 47.84 44.72 46.54 42.78 41.80 47.73 49.59 49.08 45.83 45.93 43.95 45.15 47.43 44.90 43.11 44.48 43.01 46.11 47.40 45.91 47.17 50.07 52.97 55.03 56.88
50.81 51.79 52.43 53.65 52.24 52.59 52.24 51.34 54.23 56.76 46.13 45.80 49.40 47.05 50.35 51.56 47.85 48.62 52.23 49.10 46.00 43.05 44.19 42.48 44.89 47.37 47.23 45.17 43.72 42.45 42.56 44.42 44.32 40.88 41.53 42.70 44.11 46.99 48.94 45.53 46.12 46.70 50.74 54.28 56.06
50.41 51.36 52.43 51.80 48.55 50.93 50.82 54.02 56.44 55.97 37.69 37.93 41.98 45.75 48.88 50.58 46.22 52.84 53.25 48.73 45.81 42.15 43.72 43.61 45.66 45.76 44.72 44.87 45.57 39.08 43.55 43.91 43.06 40.40 38.40 43.71 36.70 46.48 49.26 49.14 44.68 45.68 46.49 49.49 54.18
50.44 50.88 52.04 51.83 48.27 49.29 53.19 56.28 56.04 50.30 26.54 38.44 40.79 47.55 47.34 46.60 47.30 48.40 53.52 48.72 43.67 43.76 44.03 40.78 40.91 42.40 43.66 43.33 46.36 40.78 42.91 41.23 38.07 39.14 33.96 38.21 33.15 43.12 43.99 43.43 45.65 46.00 46.90 47.28 49.76
50.17 50.57 51.41 49.40 48.80 48.67 55.39 55.58 51.12 35.38 27.15 33.56 40.11 40.07 41.42 43.81 45.51 43.76 44.95 48.69 49.74 44.70 45.06 41.18 43.13 44.86 44.22 43.75 46.05 43.64 38.83 37.98 36.53 35.88 31.10 37.16 34.45 40.45 44.13 44.34 47.40 47.69 47.07 47.87 48.11
49.57 50.06 49.76 50.22 43.63 51.83 55.13 50.28 34.31 29.30 34.25 31.22 35.27 39.98 38.98 38.75 41.17 42.07 40.38 39.95 39.38 36.31 36.68 38.41 39.13 40.87 43.58 39.70 41.55 40.37 38.60 29.97 28.66 29.19 33.02 34.78 34.88 40.34 46.48 45.46 47.59 48.29 48.59 48.42 48.82
48.44 49.53 49.86 48.32 49.85 48.79 51.77 40.88 29.59 31.32 32.91 37.07 38.12 37.66 36.11 39.53 40.93 41.17 40.21 38.79 41.18 42.48 36.62 33.42 31.31 37.48 40.91 42.44 37.20 37.84 38.64 31.99 27.64 27.73 33.37 30.16 31.69 39.53 43.99 43.66 46.96 45.19 46.84 47.18 47.98
47.96 48.18 47.63 48.78 50.08 48.64 45.59 31.87 32.27 33.97 35.66 35.62 36.73 34.52 32.96 36.20 38.93 39.17 39.55 39.65 40.99 43.26 37.62 34.92 33.89 40.28 38.74 41.12 41.75 36.74 34.60 39.86 31.79 25.72 28.48 34.48 37.12 41.55 42.87 43.22 42.95 43.88 44.51 45.15 46.58
45.29 45.06 45.50 50.27 50.55 45.77 40.24 33.02 32.85 37.84 39.14 38.42 33.75 37.50 31.77 33.19 35.29 38.05 37.89 42.68 39.81 41.58 44.40 40.40 31.64 38.02 39.20 41.57 40.39 40.81 41.54 32.87 33.49 27.57 26.71 34.45 33.26 36.64 40.33 41.44 44.08 43.91 45.17 46.91 46.92
43.57 39.16 44.14 49.48 47.95 40.08 32.13 31.98 34.03 39.57 41.63 38.76 36.03 35.43 36.90 34.87 38.16 37.67 37.47 39.38 42.36 39.51 42.64 40.99 36.42 31.98 36.11 35.36 36.21 37.12 36.26 36.73 36.72 33.53 29.56 28.73 35.41 42.01 42.25 43.36 42.42 43.15 43.90 44.29 45.57
39.00 32.95 44.21 49.03 33.91 37.87 33.53 33.68 38.58 39.48 42.18 39.11 39.00 39.22 37.09 38.32 36.87 37.44 36.25 37.14 43.43 41.60 38.21 38.82 35.49 31.51 33.44 37.44 39.14 40.70 38.04 37.51 33.52 29.77 32.80 29.59 33.77 41.02 41.51 41.04 40.84 42.69 43.28 44.80 45.38
33.14 34.62 42.38 40.75 31.14 32.38 35.00 35.49 38.58 37.90 38.00 38.29 35.27 39.56 40.19 36.89 33.83 34.99 36.29 40.97 43.34 42.48 39.93 38.21 34.20 28.65 29.24 33.77 36.65 36.26 37.92 39.45 38.94 35.41 32.53 31.18 35.80 46.18 41.93 41.08 41.87 42.64 43.78 45.17 45.29
35.18 31.55 34.58 34.42 35.23 35.11 33.20 34.23 34.87 40.78 36.20 37.20 37.25 40.25 38.30 35.92 38.20 33.63 34.91 37.19 42.08 43.28 41.20 41.21 34.83 34.34 30.74 33.25 34.78 32.22 36.02 37.83 37.06 32.22 34.23 34.55 38.63 41.93 40.80 42.02 43.62 43.87 44.09 44.87 45.87
34.87 31.45 31.91 30.07 32.46 36.36 37.52 36.09 34.19 32.17 36.53 37.99 37.12 38.10 37.59 33.95 33.07 33.64 34.28 35.74 39.32 41.83 40.49 40.31 32.63 34.22 35.22 35.86 36.84 35.91 35.22 36.23 35.41 37.02 33.63 37.27 36.80 41.25 44.14 44.89 45.85 47.23 45.75 43.33 43.93
33.24 32.75 32.09 31.69 32.53 35.19 36.75 34.71 34.09 36.12 35.49 34.82 36.06 38.30 39.01 35.17 36.13 33.07 35.41 36.00 35.61 38.55 38.79 37.43 33.38 34.37 29.66 33.36 35.06 33.26 36.28 36.85 36.86 37.58 37.93 38.39 37.38 44.22 45.25 45.83 45.32 45.97 45.73 43.19 43.60
36.14 35.42 35.01 32.96 32.26 32.64 35.28 35.85 35.68 38.07 36.67 38.37 39.12 37.72 36.55 38.77 40.29 39.71 40.86 40.29 39.20 38.21 37.85 35.64 32.47 32.53 29.73 30.55 32.07 29.15 33.66 36.11 37.28 39.37 38.90 34.67 39.71 42.76 42.20 42.64 43.66 44.54 44.95 44.94 45.87

GFSSW_sfc_wetblb_111.txt.gz
Wetbulb
58.94 60.02 60.38 60.77 60.79 60.92 60.19 62.16 62.89 63.24 63.11 63.35 63.66 63.13 62.33 61.83 61.49 60.01 56.27 60.08 60.67 62.14 61.10 58.61 57.80 55.37 54.56 55.50 55.92 55.24 49.92 48.21 48.53 48.97 49.70 53.74 52.81 53.82 56.43 56.28 57.75 59.38 58.12 62.30 64.74
58.34 59.30 59.97 60.52 60.59 60.62 60.74 59.18 61.91 62.67 62.97 61.91 62.68 62.75 61.66 60.72 58.78 56.68 61.37 62.09 62.66 62.48 59.61 58.51 52.85 54.26 51.62 52.30 53.82 52.06 50.04 49.87 52.24 50.93 49.47 51.82 53.29 53.35 53.47 54.86 55.54 57.63 60.57 64.23 63.25
58.19 58.79 59.36 60.19 60.10 60.38 60.45 60.30 57.69 61.05 62.56 61.79 61.90 62.24 60.67 59.67 55.63 55.77 62.60 62.89 63.40 61.71 60.56 62.35 57.49 54.40 50.93 52.02 52.59 52.91 50.23 53.75 50.08 50.43 50.70 49.73 50.17 53.48 53.00 51.83 54.47 55.47 58.84 62.10 61.14
57.40 57.99 58.74 59.32 59.83 59.84 60.07 60.08 59.25 57.11 61.59 62.19 62.14 61.46 59.70 57.80 46.39 58.19 62.27 63.13 63.72 61.18 58.80 59.26 57.41 51.38 49.38 48.42 52.97 48.05 53.71 54.52 50.93 49.76 49.81 49.42 50.58 49.97 52.29 53.65 55.49 57.09 60.97 61.57 60.35
56.68 57.01 57.73 58.71 59.24 59.39 59.81 59.53 59.13 58.51 55.88 61.92 62.32 60.48 56.37 52.17 53.97 59.82 61.60 62.44 60.41 59.17 57.23 56.62 56.13 54.16 49.37 49.99 50.13 48.39 52.59 51.66 50.56 49.58 50.00 50.01 49.14 49.53 51.07 54.63 55.66 58.47 61.01 60.57 60.12
56.10 56.26 56.89 57.59 58.61 59.07 59.44 59.47 58.84 58.18 57.65 55.96 61.59 59.43 53.97 47.78 60.74 60.74 58.96 59.30 59.31 58.81 57.65 57.62 56.26 56.40 52.84 51.32 50.08 52.34 52.14 50.25 50.15 50.36 50.10 49.77 49.45 48.83 52.00 54.25 55.05 58.37 59.89 60.83 60.98
55.77 55.82 56.16 56.81 57.72 58.24 58.72 58.90 59.22 58.05 57.73 57.14 61.11 56.92 52.28 51.02 60.27 61.02 59.42 58.79 59.48 59.17 56.97 58.61 58.08 54.33 52.53 49.08 52.36 51.00 47.87 48.71 49.11 50.72 50.76 50.43 49.56 47.78 52.42 53.45 54.16 56.61 59.12 60.79 61.35
55.39 55.40 55.85 56.28 57.35 57.91 58.30 58.43 58.42 58.28 57.80 57.06 56.56 55.93 49.91 58.85 60.32 59.27 59.72 58.22 58.97 59.60 59.62 59.79 58.02 54.61 50.23 52.11 47.67 48.09 49.01 44.04 50.06 49.62 50.52 49.49 45.92 52.83 52.87 52.29 53.00 55.19 57.62 59.43 60.87
55.04 54.71 55.62 56.42 56.96 57.23 57.58 57.93 58.04 57.67 57.22 57.04 51.24 53.46 48.72 56.24 55.35 58.63 58.93 55.20 56.62 57.65 58.88 57.74 55.59 52.34 51.11 45.96 45.14 46.08 43.08 44.10 47.77 51.60 50.85 47.90 47.91 53.64 51.18 51.56 52.28 54.13 56.16 58.57 59.76
54.66 54.88 55.77 56.41 56.59 56.69 56.94 57.54 57.62 57.30 56.20 54.69 51.63 49.43 50.14 50.05 55.20 56.87 58.79 57.32 54.47 54.88 53.27 52.65 50.84 48.71 48.30 45.62 40.79 40.85 42.53 45.01 46.47 48.71 47.23 47.55 47.05 52.29 49.74 50.32 51.58 53.42 55.45 57.07 58.72
54.41 55.33 55.62 55.64 55.07 55.93 55.86 54.45 49.15 48.66 50.54 45.17 49.07 48.77 48.92 54.71 57.13 54.31 56.79 55.04 54.51 52.50 46.98 49.53 45.27 43.40 46.70 47.88 49.30 47.57 43.74 45.67 48.50 49.25 45.48 46.85 48.18 51.01 52.90 50.25 49.68 51.19 53.52 55.80 57.22
54.00 54.23 54.75 55.26 54.96 53.92 54.74 48.60 49.54 51.84 43.34 48.18 46.95 51.60 52.38 54.26 48.63 51.98 56.25 50.56 48.97 44.94 48.15 45.12 42.91 48.28 49.84 49.28 48.09 46.83 45.67 45.44 48.84 44.71 44.02 47.10 46.74 48.91 50.61 51.84 50.39 50.53 51.51 53.75 56.41
52.74 52.85 53.03 54.02 54.40 53.19 51.60 50.62 54.83 53.86 44.71 44.89 46.00 49.94 50.27 52.72 48.02 48.45 53.15 51.39 47.84 45.07 45.11 43.03 45.35 49.78 48.30 47.10 45.23 45.63 44.85 45.98 45.91 45.81 46.69 46.28 45.25 48.20 51.64 51.08 51.07 50.33 50.91 52.57 54.45
51.26 51.53 52.23 53.45 49.59 51.49 49.42 54.10 54.71 53.03 36.49 36.61 45.48 47.59 50.29 51.06 46.16 53.13 53.95 50.85 47.53 44.31 45.29 43.90 48.29 47.43 47.29 45.99 46.87 41.73 46.03 46.64 44.52 42.77 39.95 45.72 38.25 47.24 51.02 51.59 51.30 50.66 50.19 50.61 52.93
49.91 51.12 51.99 52.85 49.93 47.69 50.07 54.31 54.88 50.01 26.04 39.10 43.87 52.25 50.56 46.91 46.55 47.35 54.17 50.18 44.21 44.53 45.37 42.83 43.38 44.74 44.04 45.34 48.15 42.54 47.03 44.97 40.74 40.29 38.88 42.20 38.50 43.94 48.54 48.33 50.70 52.80 51.67 51.08 52.32
49.71 50.93 51.68 50.49 50.81 51.32 53.50 54.48 51.50 34.78 26.52 34.06 40.96 42.38 44.36 45.82 45.84 47.43 46.86 50.34 50.35 45.31 45.79 42.50 45.16 47.32 46.96 48.28 48.34 45.22 40.42 39.61 40.07 39.07 34.09 40.51 40.09 40.54 44.98 47.54 49.29 51.39 52.93 53.53 51.83
50.06 50.99 50.71 50.97 45.49 50.97 51.13 48.39 33.89 28.32 33.88 31.14 35.20 42.18 42.53 42.05 42.29 43.96 41.25 42.08 41.23 37.10 37.74 40.01 41.57 42.77 46.14 40.85 43.26 41.95 41.21 32.56 31.69 31.94 31.81 38.46 38.80 41.52 47.52 50.02 50.05 48.80 51.65 52.90 52.93
49.12 50.28 50.11 50.02 51.81 50.04 47.30 37.89 27.89 33.95 32.31 36.24 38.95 41.65 38.92 41.98 41.46 41.48 40.12 39.29 44.61 43.16 38.64 34.24 31.27 38.63 45.34 42.02 37.94 39.19 40.14 34.12 29.13 29.96 34.49 34.05 34.73 41.13 47.96 47.98 45.42 50.08 48.98 49.50 51.04
48.98 48.58 47.83 49.34 50.38 49.06 36.15 27.30 32.13 33.10 35.49 36.70 39.90 37.16 36.47 39.05 40.26 39.98 39.51 39.89 43.47 44.76 37.72 35.22 34.57 40.97 42.13 44.27 43.39 38.16 36.26 42.30 34.71 29.25 31.91 37.12 40.17 44.53 46.64 46.51 47.45 47.05 47.93 48.57 48.11
45.60 44.13 44.96 50.15 49.83 42.10 32.38 28.80 32.40 39.28 39.93 40.27 35.17 37.24 32.52 34.07 37.79 37.93 38.65 42.99 42.94 46.04 46.61 41.27 32.64 38.40 38.65 44.15 42.23 42.61 43.52 34.78 36.11 30.04 28.07 35.59 38.04 39.50 42.44 44.89 47.25 46.95 47.07 48.55 49.36
44.31 38.73 45.29 49.35 46.23 35.91 28.81 31.12 33.30 40.86 43.08 39.32 38.05 36.45 36.55 34.77 39.47 38.07 38.61 42.43 45.37 45.35 46.55 43.94 38.31 34.09 37.75 37.90 37.44 38.36 37.14 39.47 40.07 37.35 31.31 30.61 36.72 44.18 45.34 45.48 45.25 44.55 44.60 45.85 46.90
41.10 32.89 44.07 48.26 34.21 34.40 31.93 34.18 37.72 37.91 43.22 42.62 43.30 41.68 38.44 39.70 38.54 38.23 37.94 42.24 46.50 46.19 41.20 42.77 38.05 30.52 33.77 38.25 41.80 42.53 39.51 39.75 35.11 31.53 35.41 34.68 35.44 43.63 44.17 44.30 44.25 44.33 45.29 46.72 47.68
33.96 36.54 43.05 44.08 30.71 31.55 35.04 35.34 37.20 38.51 40.03 41.04 40.56 42.47 42.44 40.04 36.29 40.03 40.62 44.71 45.34 44.01 42.01 41.16 36.40 28.96 29.24 35.16 39.08 37.50 41.07 41.67 41.10 37.35 34.57 32.71 36.61 47.79 45.07 43.09 44.22 44.87 45.58 46.71 47.26
35.92 31.62 35.14 37.29 34.85 33.68 33.34 33.80 34.03 42.02 41.45 43.66 42.84 43.90 41.40 39.93 42.02 37.97 38.57 41.51 44.99 45.17 42.72 42.44 38.17 35.30 30.83 34.46 37.31 33.86 37.70 39.70 39.37 34.25 35.18 35.97 39.57 43.93 44.26 44.31 44.93 45.56 47.01 47.79 48.09
37.15 32.60 33.05 30.72 32.28 33.30 35.11 36.02 34.98 34.45 38.08 41.90 39.86 41.92 40.95 36.14 37.08 35.98 37.73 39.74 43.26 43.42 42.18 42.19 34.50 38.10 38.58 39.43 38.78 37.38 36.68 38.25 36.77 38.63 35.38 38.53 39.27 42.75 45.63 46.74 47.91 49.00 48.90 48.26 48.27
33.81 33.13 32.49 32.62 32.71 32.40 33.19 33.58 35.38 33.88 37.23 37.11 38.73 42.06 42.19 37.43 38.64 35.07 37.44 38.72 38.52 41.96 40.65 41.26 35.30 36.25 31.03 37.69 38.27 35.76 38.57 38.83 38.44 39.47 39.35 40.17 39.54 45.84 46.85 47.69 46.28 46.95 47.34 47.10 47.51
37.86 37.07 35.74 33.48 33.11 32.08 33.15 35.55 36.35 38.41 40.27 41.92 42.19 41.41 39.95 41.58 43.89 43.21 42.41 41.26 42.39 40.60 39.72 37.58 33.87 34.14 28.99 34.41 33.66 30.26 35.16 38.30 39.16 40.70 40.56 36.72 41.70 44.50 43.90 44.84 45.54 46.20 46.78 46.65 47.38

GFSSW_sfc_wetblb_114.txt.gz
Wetbulb
59.27 59.64 60.47 61.41 61.90 61.84 61.48 63.33 63.01 62.85 63.71 63.88 64.25 63.49 63.02 62.18 61.74 59.17 55.28 60.38 60.93 61.92 60.34 60.72 57.53 55.61 54.80 54.02 55.20 54.33 45.98 45.15 47.00 47.78 47.84 51.60 49.58 51.18 53.20 53.77 53.69 55.74 56.98 60.25 63.07
58.81 59.09 59.60 60.60 61.29 61.70 61.24 61.64 62.85 62.77 63.29 63.54 63.54 63.13 62.20 61.22 57.28 56.03 62.19 63.84 62.69 62.36 59.95 56.14 53.53 53.25 50.18 52.65 52.56 50.37 46.17 47.69 51.00 48.55 46.89 50.48 49.94 50.73 49.70 51.76 51.81 54.40 60.53 62.39 62.91
58.39 58.55 59.02 59.98 60.70 61.17 61.27 60.48 60.86 62.53 62.65 62.67 62.18 62.38 61.45 59.79 52.95 54.85 64.09 63.51 62.99 61.72 60.17 61.50 55.65 53.57 49.99 51.76 50.93 50.19 46.21 52.14 50.40 49.92 50.18 48.98 47.91 50.05 49.03 48.09 51.40 53.16 58.06 60.16 61.01
57.73 58.03 58.61 59.04 59.84 60.84 61.00 60.76 59.50 60.12 62.37 62.53 61.90 61.55 60.50 56.78 45.39 58.15 63.94 64.06 63.45 59.77 58.50 59.44 55.10 50.99 48.26 47.13 51.53 46.40 51.35 51.59 49.95 49.67 49.18 48.20 48.65 47.35 47.87 48.03 51.91 53.94 60.11 59.47 60.06
57.15 57.53 57.90 58.59 59.04 60.09 60.66 60.55 60.42 58.85 59.03 62.10 61.72 61.24 57.74 51.41 52.28 59.48 62.75 63.03 60.19 58.40 56.27 57.25 54.59 50.74 48.14 48.79 50.28 48.55 51.04 53.64 49.88 48.38 47.89 49.14 47.39 46.60 46.27 49.45 52.55 58.53 60.23 58.49 59.19
56.60 56.76 57.30 57.69 58.29 59.46 60.12 60.22 60.12 59.77 58.12 58.78 61.85 61.00 54.95 47.26 59.46 59.59 60.14 59.31 58.51 57.00 56.21 57.34 56.24 55.58 51.59 50.57 48.38 50.21 50.77 49.63 48.61 48.39 48.30 47.80 47.53 46.27 47.91 49.19 51.56 56.93 57.07 58.19 58.76
55.99 56.25 56.35 57.18 57.86 58.59 59.28 59.78 59.88 59.21 59.21 57.80 60.66 58.41 53.56 51.28 59.83 59.93 59.08 58.09 58.75 57.59 55.59 57.64 58.57 54.41 52.67 49.68 51.27 50.12 46.62 46.67 46.71 47.62 47.63 48.50 46.25 45.22 49.35 49.92 50.83 52.88 55.87 57.74 58.85
55.41 55.79 55.76 56.45 57.09 57.82 58.55 59.07 59.29 59.02 58.84 58.72 57.69 57.81 50.59 58.40 60.05 58.93 58.75 57.83 59.24 59.50 58.53 59.07 58.24 53.74 51.79 50.79 48.16 45.45 45.92 40.94 47.16 48.15 47.51 47.58 42.47 50.05 52.05 49.04 49.08 51.03 52.88 57.28 58.76
54.78 55.26 55.32 55.56 55.92 56.72 57.79 58.43 58.47 59.24 58.32 57.94 54.19 51.74 47.49 59.03 54.87 58.25 58.26 55.54 56.96 57.47 58.25 58.92 56.36 51.33 50.36 46.15 44.05 43.49 40.12 42.38 45.18 49.85 47.44 45.15 42.58 49.96 51.63 48.49 47.08 48.63 51.67 55.19 57.38
54.48 54.94 55.04 55.09 55.44 56.07 57.24 58.14 57.95 57.70 56.50 55.70 54.04 47.33 49.40 50.05 54.88 56.99 58.51 57.40 53.74 53.89 53.05 52.58 50.03 46.26 46.12 45.08 39.34 40.97 40.85 43.43 42.47 47.59 47.26 43.76 42.61 48.23 46.49 47.19 47.16 47.94 49.36 53.53 55.14
54.33 54.87 55.04 54.97 56.04 56.48 56.10 53.81 48.63 46.68 50.12 45.84 45.63 45.56 48.64 54.14 56.77 54.67 56.66 54.36 53.47 51.64 45.63 48.90 44.03 41.00 43.91 46.43 48.23 46.24 43.88 43.25 46.43 47.26 44.25 43.52 44.72 47.58 49.51 45.82 45.47 46.26 47.57 50.83 55.56
53.98 54.87 55.25 55.21 55.41 56.00 54.48 48.45 48.54 50.98 42.99 49.11 48.69 48.54 50.22 54.31 49.71 52.03 56.09 49.37 48.76 44.33 47.41 44.81 41.48 45.79 48.04 48.21 46.21 46.15 43.98 43.15 45.48 44.12 41.75 42.70 43.47 46.71 48.77 49.46 49.09 46.54 47.08 48.21 51.77
53.72 54.20 54.77 54.71 54.99 53.02 50.17 49.51 54.74 53.94 43.12 45.14 47.78 46.64 47.69 51.03 48.80 48.98 52.51 50.20 46.82 44.23 44.33 40.85 43.17 47.92 47.28 45.48 44.16 44.99 43.66 42.67 43.36 43.45 44.34 41.33 40.33 44.17 48.40 48.79 48.44 48.57 47.70 48.64 49.43
53.43 53.66 53.90 54.31 50.38 50.15 47.89 52.83 54.15 53.32 36.79 39.18 43.45 45.58 47.42 48.20 46.90 52.95 53.59 50.36 47.05 43.02 44.40 43.16 46.24 45.41 44.76 43.58 44.79 41.12 45.80 44.87 43.91 41.98 38.20 40.77 32.67 41.22 45.59 47.92 48.76 47.85 45.46 45.91 47.37
52.82 53.04 53.23 53.84 49.10 47.30 50.19 53.40 53.77 49.23 23.23 40.08 42.01 49.83 47.88 42.77 47.56 48.01 53.78 49.96 44.25 43.88 44.43 41.01 42.50 43.96 42.62 44.03 46.90 42.74 46.32 43.96 41.56 39.80 38.62 39.45 34.94 38.18 43.95 43.44 46.43 49.51 48.05 47.44 47.08
51.89 52.46 52.72 51.42 50.48 51.20 53.26 53.17 50.28 34.50 24.22 35.51 43.03 41.37 41.36 43.07 46.04 48.13 48.35 50.55 50.31 45.36 45.41 42.47 44.83 45.95 45.74 47.70 47.04 44.36 41.47 40.14 38.60 39.15 32.96 37.70 36.86 36.37 40.66 43.67 45.49 48.14 49.52 49.55 48.76
50.82 51.75 51.05 50.81 44.58 51.58 52.09 47.66 31.78 26.25 35.44 32.33 36.82 41.41 40.14 38.86 43.34 44.42 43.72 41.99 40.46 37.10 36.46 40.38 41.77 42.50 45.25 43.01 43.08 42.67 40.08 31.52 31.67 31.33 30.73 35.92 35.44 38.79 44.03 45.83 45.65 45.52 45.58 46.96 49.71
50.16 51.02 50.39 49.71 51.40 50.90 47.22 38.61 24.62 31.41 33.13 36.73 37.58 40.99 36.77 39.92 41.80 42.87 41.70 38.58 43.32 41.43 37.50 34.76 32.02 39.23 45.39 43.17 39.36 41.00 39.79 30.73 25.12 26.58 28.66 29.81 30.06 37.67 46.58 46.05 43.72 44.14 45.72 44.14 43.35
49.66 48.25 47.29 48.74 50.43 48.68 38.90 25.07 28.31 31.99 36.03 35.35 38.03 36.75 36.34 41.16 41.08 40.91 39.31 38.40 42.07 43.14 35.57 34.25 33.87 40.72 44.26 43.76 43.05 38.62 36.95 39.70 30.95 23.45 26.56 30.64 34.82 40.98 43.51 43.02 41.91 42.17 42.87 43.55 42.82
44.83 43.94 43.81 49.48 49.19 44.34 32.78 27.19 30.97 36.10 36.39 39.13 34.58 38.55 33.18 35.97 37.34 38.70 38.27 42.55 42.14 44.45 43.70 38.92 31.75 38.21 37.87 43.74 42.02 40.99 42.21 34.51 34.08 22.88 22.45 29.27 31.35 34.38 37.66 41.21 43.10 42.64 42.74 42.49 43.02
43.40 37.46 45.00 48.97 46.61 37.80 27.24 28.03 31.61 36.88 37.98 34.99 37.44 37.02 35.40 34.61 37.04 37.41 38.15 42.35 44.63 43.76 43.52 41.36 36.20 33.99 37.96 38.08 36.31 37.87 37.26 38.51 37.77 34.23 26.71 24.50 29.40 36.41 40.80 42.28 42.01 39.91 41.15 41.35 42.59
40.87 31.79 45.74 46.77 33.47 34.59 29.56 32.49 35.96 35.16 38.60 36.57 38.35 40.02 35.89 37.85 37.42 37.80 36.93 41.16 46.29 45.47 40.00 40.29 35.93 29.95 33.38 38.05 42.28 41.32 39.20 38.90 33.59 30.10 31.79 30.01 29.71 39.33 39.28 39.60 40.90 40.60 42.05 42.40 43.27
33.41 34.79 43.31 43.81 28.55 29.92 33.96 33.55 35.46 34.43 35.53 34.85 35.01 42.05 41.88 38.71 36.10 39.52 40.14 43.83 46.39 44.51 41.09 39.78 33.90 28.32 29.61 33.24 35.78 37.68 39.65 40.91 37.76 33.58 29.01 26.68 30.12 41.06 38.99 39.49 40.28 40.36 41.16 42.29 41.99
35.69 30.59 34.59 36.86 37.07 32.91 31.25 31.36 31.88 37.64 35.79 37.38 34.29 42.84 40.45 39.07 41.23 38.37 39.58 43.02 45.83 45.48 43.22 42.42 35.91 32.17 28.55 32.76 35.11 33.70 37.12 39.18 37.54 29.74 30.52 32.88 34.61 35.11 37.56 38.97 39.27 40.24 41.52 41.96 42.81
37.71 32.39 33.11 28.09 31.16 33.40 35.40 34.37 32.07 31.88 36.90 39.13 36.54 40.57 39.46 36.95 38.35 38.26 38.66 41.49 44.24 42.79 40.74 40.37 30.70 34.74 35.32 37.47 36.98 36.15 36.92 38.16 36.83 37.78 33.61 36.06 36.34 39.55 40.56 40.36 42.33 42.94 44.08 42.71 43.37
33.62 32.01 32.08 32.96 33.64 31.80 32.86 31.59 31.89 34.51 36.70 34.70 35.15 40.87 41.56 38.09 38.46 36.96 39.84 40.35 39.71 39.38 38.36 39.29 30.84 32.95 26.70 35.13 36.60 33.78 37.00 37.92 38.39 38.58 37.86 36.23 36.08 42.17 41.60 41.75 42.22 42.40 43.21 42.34 42.50
38.87 37.78 35.31 33.33 32.16 29.56 31.23 31.76 33.72 36.63 37.47 39.66 38.37 40.65 40.21 40.99 43.44 43.39 43.83 42.52 42.91 40.22 38.80 37.09 32.76 31.25 23.33 29.11 30.58 25.11 33.82 36.39 37.44 39.52 39.04 34.27 39.07 40.18 39.67 41.50 41.44 42.06 42.40 42.31 42.84

GFSSW_sfc_wetblb_117.txt.gz
Wetbulb
59.92 60.23 60.33 61.06 61.60 62.15 62.66 63.59 63.15 63.62 63.76 64.27 64.39 63.71 63.33 62.36 61.17 58.73 53.78 59.38 60.68 61.83 60.78 57.75 54.45 52.37 52.60 51.59 52.32 51.50 42.41 42.26 44.65 44.32 44.86 49.02 46.66 49.39 50.98 52.46 53.73 55.76 55.98 58.37 61.80
59.42 59.69 59.93 60.22 61.29 61.59 61.89 62.64 62.94 62.80 63.41 63.55 63.76 63.32 62.27 60.94 57.29 55.01 61.19 64.30 62.87 62.48 58.13 53.64 50.28 51.63 48.39 50.17 51.11 50.52 42.00 44.43 47.40 44.22 45.60 49.43 47.81 48.75 48.31 49.79 50.62 56.70 59.53 61.05 61.41
58.89 59.12 59.39 59.68 60.38 61.42 61.40 61.61 62.38 62.56 63.13 63.37 62.72 62.70 61.23 59.52 53.99 54.50 63.11 64.38 63.42 62.09 57.71 56.40 53.89 52.01 48.75 47.54 47.17 47.28 44.53 49.76 46.85 47.09 47.97 47.25 46.14 49.31 47.85 46.22 50.97 53.76 57.67 59.45 59.47
57.99 58.52 58.95 59.37 59.75 60.61 61.28 60.99 61.27 62.17 62.50 62.63 62.70 61.49 60.00 57.47 45.59 57.54 63.14 64.78 63.16 59.38 55.76 56.05 51.94 49.58 48.53 44.91 48.31 44.12 48.92 48.57 48.80 48.04 47.37 46.20 47.36 45.51 46.34 47.14 50.73 58.20 59.70 59.63 59.85
57.51 57.50 58.17 58.58 59.27 60.06 60.67 60.82 60.32 61.27 61.67 62.12 61.78 60.37 57.55 51.99 52.31 60.62 63.38 63.93 60.21 57.32 53.54 53.93 49.63 49.02 48.99 49.15 50.15 45.84 47.65 50.80 47.68 46.84 46.15 47.67 45.38 45.17 44.66 46.94 53.35 59.99 59.30 57.97 58.27
57.12 56.99 57.22 57.82 58.50 59.39 59.90 60.66 60.35 60.06 60.76 61.57 61.66 60.44 54.13 48.00 58.75 59.97 60.22 59.41 58.09 55.54 54.73 54.28 52.34 50.62 47.30 49.90 50.19 49.20 49.13 48.95 47.00 45.87 46.22 46.19 45.41 45.89 46.35 47.50 55.80 58.28 56.97 57.25 58.11
56.67 56.66 56.93 57.32 58.05 58.53 59.18 59.53 60.03 59.68 59.60 60.63 61.46 58.39 52.37 49.61 58.10 58.62 59.25 57.89 58.32 56.24 53.36 54.76 55.92 52.82 50.12 46.83 49.20 49.76 44.34 47.66 45.82 45.57 45.71 46.36 44.57 44.40 48.61 48.81 53.37 54.75 56.00 56.63 57.40
56.24 56.13 56.55 57.05 57.33 57.86 58.48 59.00 59.01 59.25 59.14 58.94 59.72 57.25 50.69 57.81 58.52 58.13 58.32 57.14 58.53 58.23 56.50 56.70 55.68 51.90 49.22 47.98 46.08 43.10 43.65 40.12 45.71 45.29 46.43 46.25 41.22 47.14 48.79 47.52 47.35 51.24 53.85 56.06 57.34
55.62 55.65 56.21 56.52 56.76 57.43 58.14 58.47 58.10 59.10 58.96 58.29 53.82 51.56 48.07 58.75 54.94 58.13 57.69 55.05 56.49 56.83 57.04 57.87 55.53 48.69 49.20 43.59 40.69 43.04 38.01 41.00 44.36 47.34 45.41 44.13 40.71 47.60 48.92 46.87 46.02 46.20 50.52 55.39 56.75
55.29 55.42 55.90 55.80 56.13 56.62 57.22 57.87 57.48 57.34 55.76 55.03 52.86 47.16 49.12 50.48 54.31 56.83 57.71 57.25 54.43 53.84 52.36 51.93 49.75 44.89 45.36 41.67 36.36 37.68 40.39 42.22 42.31 44.90 43.92 41.10 41.33 46.21 45.92 45.24 45.24 45.38 46.59 55.05 56.31
55.03 55.23 55.61 55.39 55.64 56.26 54.66 52.00 47.91 45.70 49.72 42.86 44.49 44.27 47.59 52.61 55.91 54.42 56.35 54.83 53.84 51.07 45.50 47.78 43.85 40.95 42.05 44.21 44.45 43.44 41.65 40.98 42.76 46.23 43.68 43.43 41.94 44.06 46.78 44.64 43.37 44.56 45.12 51.14 55.32
54.73 54.76 55.02 55.25 55.49 55.61 51.84 46.88 46.93 46.08 41.27 46.77 47.19 46.58 49.25 53.30 49.56 51.92 56.28 50.03 48.34 44.19 46.63 44.69 40.54 44.33 45.54 45.90 44.60 44.65 41.75 42.14 45.10 44.43 44.23 41.07 41.43 44.50 46.42 47.33 44.82 45.21 45.25 45.45 52.48
54.08 54.33 54.56 54.82 54.65 52.38 48.41 48.20 52.54 49.81 38.78 42.33 46.00 45.68 46.27 49.94 47.53 49.27 53.10 50.55 46.42 43.86 43.63 40.67 42.60 45.95 44.97 43.69 43.18 42.44 42.58 43.16 43.75 41.54 43.05 39.03 38.19 41.52 46.08 46.53 47.70 47.30 46.27 46.81 47.20
53.79 53.89 54.17 53.95 49.82 48.70 46.59 52.62 52.10 50.12 31.56 35.53 41.66 44.28 48.05 47.57 43.52 52.50 53.93 50.10 46.97 43.10 44.00 42.36 44.35 44.31 43.01 42.26 43.67 39.47 45.60 44.44 41.58 40.54 36.30 39.67 31.31 38.37 43.38 45.05 46.81 46.41 44.65 45.43 46.35
53.36 53.59 54.06 53.34 46.65 45.81 48.07 52.90 53.04 48.06 20.88 36.03 41.10 48.72 47.35 43.92 44.15 45.65 54.18 50.09 44.29 43.90 43.67 40.88 41.25 41.44 41.08 42.28 45.12 40.58 45.40 42.50 41.67 38.07 35.45 36.51 33.68 36.61 40.99 41.20 44.57 48.37 46.07 45.57 45.94
53.07 53.27 53.49 50.24 47.73 48.00 51.71 52.79 49.18 31.99 21.18 34.76 41.54 41.01 41.33 42.37 42.01 47.07 48.56 51.71 50.25 44.82 44.57 42.21 44.63 44.16 43.84 45.04 45.01 43.72 41.75 40.84 40.10 38.78 33.48 36.64 36.36 34.85 39.04 43.14 44.17 46.06 49.48 48.71 46.13
52.91 52.92 51.17 49.36 44.09 50.38 51.32 46.52 30.53 25.05 34.90 32.29 35.92 40.38 39.07 38.71 39.37 43.47 43.33 42.44 41.14 36.80 37.18 41.05 41.49 43.04 46.17 41.07 43.59 43.15 40.92 32.55 31.32 31.56 29.27 35.74 34.71 39.22 41.46 43.95 44.48 45.50 45.55 47.70 46.46
52.06 51.66 50.03 48.55 49.81 50.04 47.57 38.29 24.56 29.22 30.44 35.96 38.59 38.27 35.11 37.71 38.33 39.86 40.89 38.27 43.41 41.29 37.75 34.05 32.30 40.36 43.90 43.64 39.26 41.08 39.58 29.13 23.13 26.12 26.44 29.68 30.28 35.76 45.20 47.80 45.88 46.79 46.85 44.11 43.67
51.16 47.25 44.96 46.55 49.59 48.04 40.64 27.23 27.65 27.49 34.38 33.48 36.92 34.27 34.25 36.92 36.01 38.20 36.76 39.55 42.25 43.08 36.47 34.39 33.82 40.48 42.76 42.96 43.63 39.17 37.66 37.75 28.98 20.34 24.26 28.85 32.67 39.35 41.64 43.13 41.76 41.57 41.01 42.41 42.52
42.68 42.39 41.76 47.61 48.15 43.29 33.03 28.91 29.28 34.15 35.96 35.32 32.32 36.15 32.55 34.38 34.54 35.88 36.31 41.91 41.38 44.34 42.91 37.86 32.43 39.00 38.60 43.32 41.69 41.44 42.53 34.96 30.60 21.45 21.28 26.84 28.16 32.06 36.52 40.01 41.54 41.80 42.01 40.34 40.47
40.20 33.69 42.68 48.24 45.82 37.23 26.66 20.57 28.11 35.96 37.32 33.01 32.62 33.95 35.82 34.96 35.52 34.57 35.50 39.07 44.02 43.40 42.11 40.25 36.44 34.12 38.73 38.99 38.63 38.65 37.79 36.70 36.35 30.99 25.24 22.83 27.85 36.95 38.73 42.44 40.91 39.27 40.56 40.29 40.39
36.14 24.49 45.03 45.74 33.71 33.29 24.63 26.26 35.15 32.78 36.72 36.40 35.29 33.94 32.48 37.40 36.19 36.11 34.98 38.39 44.86 45.06 38.77 40.00 36.42 31.52 36.00 37.18 40.67 41.34 39.37 39.73 33.36 29.97 30.53 28.59 29.06 37.71 38.54 39.55 38.27 38.82 40.21 40.29 41.12
32.08 34.14 44.59 40.87 27.59 27.94 29.31 30.93 33.11 31.45 33.67 35.06 33.57 34.21 35.28 35.01 34.57 38.59 39.47 43.79 45.16 44.34 40.29 38.93 33.96 29.09 29.99 35.44 37.79 38.57 39.53 41.02 36.41 32.98 30.54 26.38 28.93 37.76 35.40 37.06 37.98 38.51 39.93 41.21 42.04
34.20 29.16 34.61 37.50 33.79 28.36 24.99 27.77 28.61 35.13 34.29 35.16 35.22 36.41 34.20 31.98 36.88 36.95 38.97 43.20 45.43 45.57 43.47 41.53 35.37 33.56 29.95 33.47 36.55 35.83 38.62 40.20 35.12 29.05 29.42 33.28 31.53 32.29 35.71 37.10 37.18 38.32 39.23 39.47 40.93
33.18 25.32 27.40 28.98 30.47 32.64 31.65 30.12 28.54 27.90 34.30 35.61 32.44 33.48 32.47 29.74 31.05 37.47 40.44 41.37 44.10 44.94 41.91 39.34 31.20 33.80 33.91 35.85 37.69 36.65 37.01 38.64 36.49 36.59 33.23 36.37 34.81 35.59 36.85 36.81 37.78 39.32 39.83 40.97 42.27
32.95 31.48 32.08 30.93 32.88 31.65 32.49 29.46 29.49 31.27 33.71 32.81 31.54 33.48 33.94 30.77 32.15 35.92 40.47 41.15 40.41 41.61 40.71 39.04 32.79 32.55 27.07 34.55 36.46 34.64 37.66 38.77 39.26 39.13 38.23 35.39 35.85 40.33 39.59 40.16 39.06 40.10 41.23 41.20 41.63
37.87 37.71 31.85 32.74 31.97 30.68 29.74 29.98 30.19 32.99 34.58 36.99 36.27 35.14 34.33 35.42 38.23 38.53 44.55 44.57 43.61 40.52 39.45 37.60 31.79 29.27 21.69 30.16 31.44 26.46 35.09 37.31 38.68 40.58 39.95 34.89 39.30 40.04 39.33 39.65 40.26 41.11 41.12 41.56 41.37

GFSSW_sfc_wetblb_123.txt.gz
Wetbulb
59.95 60.34 61.06 61.83 61.87 62.35 63.06 63.05 63.49 63.85 64.20 64.70 64.93 64.26 63.77 63.34 61.64 56.56 53.45 58.43 59.54 63.64 61.19 56.09 53.45 50.39 49.68 48.66 49.71 48.39 41.17 39.93 44.12 42.13 42.28 47.06 45.77 47.31 50.19 51.33 53.73 55.38 54.08 55.51 60.16
59.62 59.68 60.21 61.15 61.39 61.73 62.34 62.37 62.47 63.27 63.87 64.13 64.02 63.34 63.11 61.85 58.00 54.54 60.78 63.74 64.05 63.11 56.43 54.29 52.15 48.40 46.24 47.22 48.09 45.73 40.28 43.42 47.89 44.07 44.40 46.95 46.55 48.52 48.96 49.63 49.51 52.19 55.73 58.08 61.97
59.20 59.11 59.64 60.00 60.87 61.15 61.52 61.75 61.85 62.14 63.21 63.52 63.39 62.74 61.71 61.39 55.41 55.45 63.29 63.06 64.33 62.03 56.69 54.92 51.80 47.10 44.17 44.83 46.32 46.04 42.36 47.82 45.68 44.23 47.03 46.56 44.42 46.47 47.88 46.38 49.75 51.53 55.19 57.81 59.50
58.89 58.98 58.97 59.25 60.16 60.97 60.87 61.53 61.87 61.83 62.40 62.80 62.91 61.91 61.00 59.13 48.03 57.60 63.96 64.04 63.78 58.89 56.13 52.72 49.32 45.89 44.15 43.06 46.13 43.48 46.49 49.29 48.19 45.73 44.90 44.78 46.53 44.85 47.48 47.58 49.53 54.03 57.70 58.27 58.61
57.66 58.20 58.23 58.76 59.11 60.11 60.49 60.40 61.25 61.51 61.65 62.38 61.84 61.03 58.40 53.23 53.06 59.69 62.88 63.08 61.14 56.67 53.71 53.12 47.96 46.80 45.25 44.77 46.25 43.49 45.25 49.80 49.30 46.64 44.03 45.26 44.05 44.11 44.29 46.03 51.99 57.20 58.04 57.65 58.31
57.22 57.58 57.77 57.96 58.48 59.46 60.20 60.39 60.21 61.32 61.42 61.86 61.54 60.64 54.85 48.93 59.23 60.54 59.75 60.63 58.36 55.33 54.07 53.47 51.42 51.42 47.90 47.34 46.20 47.41 47.58 48.49 47.77 45.56 43.54 43.63 42.47 42.54 44.09 48.45 54.13 56.17 56.39 57.15 57.62
56.90 57.02 57.29 57.61 58.06 58.57 59.54 59.80 60.01 60.10 60.81 61.85 61.46 57.77 53.72 50.77 58.78 60.45 59.94 58.26 57.99 57.44 54.05 55.04 54.69 51.34 46.36 43.83 48.68 49.55 43.74 46.58 45.86 44.81 42.81 44.74 42.00 42.00 44.21 52.50 53.21 54.37 54.40 56.33 57.08
56.55 56.32 57.06 57.16 57.47 57.76 58.36 59.54 59.25 59.38 60.13 61.43 61.39 56.65 49.66 58.11 56.94 58.24 58.03 56.62 58.10 57.94 56.66 57.13 56.63 52.37 48.30 47.29 43.89 43.04 42.81 40.22 44.69 45.17 45.22 43.99 38.84 44.51 46.38 51.40 51.32 52.98 53.44 54.63 56.18
56.44 55.93 56.54 56.93 56.77 57.14 58.39 58.74 58.32 58.54 59.56 60.58 56.06 53.33 47.72 57.92 53.83 56.51 57.31 54.75 56.31 56.82 56.85 57.37 55.40 50.46 47.78 41.60 38.24 37.59 34.41 37.84 41.32 45.62 44.72 42.91 38.62 44.87 46.15 48.58 48.90 51.16 52.47 54.09 54.45
56.01 55.84 56.03 56.84 56.44 56.48 57.23 57.43 57.14 55.57 53.05 52.81 52.86 48.11 48.69 49.36 53.10 54.97 56.65 56.67 54.35 53.90 51.94 51.30 50.45 47.13 44.93 43.09 34.45 33.91 33.97 37.19 39.17 43.01 41.97 39.29 38.63 43.36 45.01 44.04 44.66 45.94 51.11 52.84 54.46
55.95 55.91 56.12 56.41 56.29 56.58 56.06 51.27 47.28 45.28 47.00 40.83 41.89 42.27 46.51 52.22 55.21 53.14 56.00 54.41 53.69 51.20 44.60 47.52 43.02 40.81 44.33 45.17 41.25 39.41 37.05 36.99 38.85 43.20 41.51 41.38 40.33 41.96 44.81 43.13 42.70 41.82 43.09 50.14 53.54
55.69 55.55 56.11 56.21 56.55 56.01 52.21 45.89 45.27 45.17 41.67 44.86 45.09 44.78 47.63 50.98 48.69 51.29 55.67 49.58 48.00 43.37 46.86 44.09 39.95 43.96 46.69 46.01 43.82 40.15 37.09 35.88 40.40 42.61 40.88 40.66 40.60 42.15 43.16 44.51 44.90 45.22 42.40 43.05 47.43
55.06 54.84 55.42 55.81 56.33 53.60 48.82 45.21 49.26 47.58 39.34 40.31 43.71 43.24 45.33 49.17 45.68 48.94 52.12 49.73 46.29 42.95 43.54 40.56 41.52 45.34 44.66 43.34 41.66 39.63 38.28 37.36 38.69 38.80 39.27 37.11 37.85 39.89 42.50 44.88 45.49 45.78 46.96 45.77 45.56
55.05 54.13 54.79 54.91 50.61 49.98 47.18 49.23 48.78 45.76 29.29 34.49 38.64 41.89 44.62 46.17 42.82 51.21 53.12 49.46 46.76 42.90 42.59 41.98 44.78 43.52 42.98 42.03 42.90 37.78 42.23 42.40 41.06 36.92 33.68 38.16 30.95 38.28 40.31 42.90 43.84 46.70 46.22 47.18 45.30
54.43 54.41 54.50 54.08 47.42 46.88 48.46 49.58 49.18 43.96 11.01 33.55 37.71 46.13 45.28 41.78 42.37 45.06 53.11 47.53 42.76 43.72 43.52 40.40 41.20 41.12 40.24 41.25 43.56 39.32 44.37 43.26 40.19 35.58 35.65 34.67 35.92 35.85 37.98 38.83 42.36 45.79 47.59 48.07 47.64
53.84 54.56 54.42 50.41 48.42 48.82 50.81 50.48 46.17 30.28 17.81 31.35 39.32 39.36 39.98 40.59 39.82 45.33 46.11 48.81 47.18 43.25 43.32 42.20 43.91 44.38 42.69 44.20 44.72 43.56 41.23 40.06 37.50 36.57 32.52 35.55 35.37 32.91 36.88 39.59 42.06 44.73 45.78 47.46 47.56
54.26 54.11 52.19 49.29 44.48 50.25 50.73 45.73 31.02 24.28 30.44 32.00 33.85 37.71 36.53 36.33 37.75 40.13 41.14 41.11 39.25 35.79 36.03 40.65 40.78 42.58 44.14 41.16 44.22 42.91 39.43 32.02 30.83 30.77 28.12 32.63 32.20 36.95 39.24 42.22 43.74 45.93 46.01 45.03 46.28
54.08 53.40 50.82 47.60 50.69 50.73 47.65 37.71 24.66 28.78 27.20 36.33 35.63 36.67 32.78 35.43 35.86 37.72 36.58 36.68 41.62 39.50 34.75 33.71 31.60 40.12 44.08 41.40 38.57 39.89 38.60 28.71 23.61 25.01 26.24 31.67 30.40 35.12 42.78 46.16 47.01 44.27 44.57 44.18 44.48
52.97 49.19 47.09 47.92 51.19 49.90 40.95 29.33 27.31 27.38 33.88 34.57 35.04 32.63 32.20 35.21 33.25 35.02 35.33 34.70 37.81 41.83 35.38 35.12 34.25 41.28 42.53 42.64 43.20 39.70 36.53 37.63 28.59 18.13 23.22 28.44 31.58 36.79 39.39 40.30 41.02 41.42 43.28 44.19 43.92
47.29 45.60 44.97 50.07 50.59 46.08 36.00 30.62 30.98 35.61 37.35 37.31 31.22 33.39 28.81 32.19 31.32 32.79 33.22 37.16 36.96 40.64 42.83 39.21 33.20 39.57 41.57 43.24 42.56 41.43 43.01 33.83 31.07 19.73 19.39 25.64 26.69 31.83 34.48 41.34 43.34 41.33 41.58 44.88 42.46
45.31 40.04 45.67 49.80 48.79 41.13 31.19 31.88 30.93 35.89 37.77 36.52 34.42 34.00 32.84 31.96 33.43 32.24 31.49 35.07 39.46 39.72 42.33 40.94 37.53 34.13 40.00 38.62 38.13 38.17 38.08 37.22 35.69 28.98 24.29 21.10 27.23 34.54 39.77 40.77 41.76 43.48 41.32 41.04 41.29
39.38 31.87 46.32 48.84 36.63 36.33 31.89 31.00 35.16 35.61 37.86 36.11 36.35 34.42 33.91 33.65 32.18 31.86 31.21 34.23 38.99 40.41 38.45 41.10 37.55 31.86 36.20 41.61 42.25 42.17 38.71 39.17 33.45 29.55 27.98 26.49 30.04 36.51 38.01 39.21 39.13 40.85 40.97 39.39 39.18
33.43 34.62 44.33 45.44 29.58 29.59 31.81 31.28 34.00 34.70 34.48 34.20 32.12 34.27 35.99 34.85 31.49 34.01 34.47 38.50 39.69 38.86 37.94 40.24 34.97 29.81 32.35 37.12 38.30 38.94 40.25 40.84 39.79 31.93 30.79 27.88 32.06 35.78 33.35 34.93 36.69 39.63 39.12 39.19 38.84
33.63 30.17 34.95 37.34 32.92 29.32 27.54 29.47 28.47 34.34 34.35 36.00 34.01 35.01 33.56 31.93 33.30 31.64 34.10 38.59 37.96 40.21 41.91 42.29 34.89 32.00 28.80 32.23 37.63 35.92 38.66 39.96 39.02 33.24 33.37 33.01 35.44 34.04 34.36 34.83 35.22 37.01 37.88 37.95 38.37
30.03 27.85 31.44 29.87 27.80 27.86 29.72 29.98 27.81 28.25 32.79 34.73 32.01 31.87 30.59 28.43 29.81 29.67 32.80 34.39 37.08 38.75 37.67 40.79 32.71 33.48 34.49 36.41 38.00 38.15 37.86 38.58 37.75 38.02 33.53 36.27 35.46 39.41 38.98 36.10 36.42 37.07 37.45 37.18 38.24
29.77 29.34 26.09 18.45 28.79 26.60 29.02 27.36 28.58 28.72 30.02 29.40 28.97 31.24 31.72 27.98 29.74 27.41 31.81 33.15 33.12 37.03 36.52 39.29 33.61 34.65 32.54 35.42 36.40 35.53 38.55 39.62 38.94 39.49 39.10 38.92 37.16 41.00 42.29 36.06 34.42 37.23 37.64 37.54 39.19
32.48 32.40 30.58 30.42 26.44 26.50 26.52 27.95 28.99 30.81 31.65 32.66 32.18 31.22 30.71 31.86 34.05 33.45 36.18 37.52 37.82 35.44 35.11 36.18 35.24 32.40 29.29 33.69 32.94 30.59 36.31 38.24 39.35 40.77 40.16 36.07 40.47 38.02 37.90 37.80 36.79 36.64 37.43 39.07 39.87